Observation data for Romero 11SSW on 12/09/2018      Previous  Date  Next       Current Mesonet Observations  Soil Data  Daily Summary Page  Observations in Plain Language
KBR1 090600Z 05005KT M04/M07 A3029 RMK A01 T10411072  RH  079%=      5-min Rain = 0
KBR1 090601Z 05005KT M04/M07 A3029 RMK A01 T10411072  RH  079%=      5-min Rain = 0
KBR1 090602Z 04004KT M04/M07 A3029 RMK A01 T10431073  RH  079%=      5-min Rain = 0
KBR1 090603Z 04003KT M04/M07 A3029 RMK A01 T10431073  RH  080%=      5-min Rain = 0
KBR1 090604Z 02002KT M04/M07 A3029 RMK A01 T10431073  RH  080%=      5-min Rain = 0
KBR1 090605Z 02003KT M05/M08 A3029 RMK A01 T10461076  RH  080%=      5-min Rain = 0
KBR1 090606Z 03002KT M05/M08 A3029 RMK A01 T10491078  RH  080%=      5-min Rain = 0
KBR1 090607Z 03002KT M05/M08 A3029 RMK A01 T10501077  RH  082%=      5-min Rain = 0
KBR1 090608Z 03002KT M05/M08 A3029 RMK A01 T10521077  RH  082%=      5-min Rain = 0
KBR1 090609Z 03003KT M05/M08 A3029 RMK A01 T10521076  RH  083%=      5-min Rain = 0
KBR1 090610Z 02003KT M05/M08 A3029 RMK A01 T10521076  RH  083%=      5-min Rain = 0
KBR1 090611Z 03003KT M05/M08 A3029 RMK A01 T10521076  RH  083%=      5-min Rain = 0
KBR1 090612Z 03003KT M05/M08 A3029 RMK A01 T10521076  RH  083%=      5-min Rain = 0
KBR1 090613Z 02003KT M05/M08 A3029 RMK A01 T10531077  RH  084%=      5-min Rain = 0
KBR1 090614Z 03003KT M05/M08 A3029 RMK A01 T10531076  RH  084%=      5-min Rain = 0
KBR1 090615Z 03002KT M05/M08 A3029 RMK A01 T10531076  RH  084%=      5-min Rain = 0
KBR1 090616Z 03003KT M05/M08 A3029 RMK A01 T10531076  RH  084%=      5-min Rain = 0
KBR1 090617Z 04003KT M05/M08 A3029 RMK A01 T10531075  RH  084%=      5-min Rain = 0
KBR1 090618Z 04004KT M05/M08 A3029 RMK A01 T10531076  RH  084%=      5-min Rain = 0
KBR1 090619Z 04004KT M05/M08 A3029 RMK A01 T10531076  RH  084%=      5-min Rain = 0
KBR1 090620Z 04004KT M05/M08 A3029 RMK A01 T10521075  RH  084%=      5-min Rain = 0
KBR1 090621Z 04005KT M05/M07 A3029 RMK A01 T10511074  RH  084%=      5-min Rain = 0
KBR1 090622Z 03005KT M05/M07 A3028 RMK A01 T10501074  RH  083%=      5-min Rain = 0
KBR1 090623Z 04005KT M05/M08 A3028 RMK A01 T10511075  RH  083%=      5-min Rain = 0
KBR1 090624Z 04005KT M05/M08 A3028 RMK A01 T10501075  RH  083%=      5-min Rain = 0
KBR1 090625Z 04005KT M05/M07 A3028 RMK A01 T10501074  RH  083%=      5-min Rain = 0
KBR1 090626Z 03004KT M05/M07 A3028 RMK A01 T10491074  RH  083%=      5-min Rain = 0
KBR1 090627Z 03004KT M05/M08 A3028 RMK A01 T10491075  RH  082%=      5-min Rain = 0
KBR1 090628Z 03005KT M05/M08 A3028 RMK A01 T10491075  RH  082%=      5-min Rain = 0
KBR1 090629Z 04005KT M05/M08 A3028 RMK A01 T10491075  RH  082%=      5-min Rain = 0
KBR1 090630Z 04005KT M05/M08 A3028 RMK A01 T10491075  RH  082%=      5-min Rain = 0
KBR1 090631Z 04005KT M05/M08 A3028 RMK A01 T10491075  RH  082%=      5-min Rain = 0
KBR1 090632Z 05006KT M05/M08 A3028 RMK A01 T10491075  RH  082%=      5-min Rain = 0
KBR1 090633Z 05006KT M05/M08 A3028 RMK A01 T10491075  RH  082%=      5-min Rain = 0
KBR1 090634Z 04005KT M05/M08 A3028 RMK A01 T10491075  RH  082%=      5-min Rain = 0
KBR1 090635Z 04005KT M05/M07 A3028 RMK A01 T10481074  RH  082%=      5-min Rain = 0
KBR1 090636Z 04005KT M05/M07 A3028 RMK A01 T10471073  RH  082%=      5-min Rain = 0
KBR1 090637Z 05004KT M05/M07 A3028 RMK A01 T10461072  RH  082%=      5-min Rain = 0
KBR1 090638Z 04005KT M05/M07 A3028 RMK A01 T10451072  RH  081%=      5-min Rain = 0
KBR1 090639Z 04005KT M04/M07 A3028 RMK A01 T10441072  RH  081%=      5-min Rain = 0
KBR1 090640Z 04004KT M04/M07 A3028 RMK A01 T10431072  RH  080%=      5-min Rain = 0
KBR1 090641Z 05005KT M04/M07 A3028 RMK A01 T10431072  RH  080%=      5-min Rain = 0
KBR1 090642Z 04005KT M04/M07 A3028 RMK A01 T10421072  RH  080%=      5-min Rain = 0
KBR1 090643Z 04005KT M04/M07 A3028 RMK A01 T10421072  RH  079%=      5-min Rain = 0
KBR1 090644Z 04005KT M04/M07 A3028 RMK A01 T10431073  RH  079%=      5-min Rain = 0
KBR1 090645Z 04005KT M04/M07 A3028 RMK A01 T10431072  RH  080%=      5-min Rain = 0
KBR1 090646Z 05005KT M04/M07 A3028 RMK A01 T10431073  RH  080%=      5-min Rain = 0
KBR1 090647Z 05005KT M04/M07 A3028 RMK A01 T10431072  RH  080%=      5-min Rain = 0
KBR1 090648Z 05005KT M04/M07 A3028 RMK A01 T10431072  RH  080%=      5-min Rain = 0
KBR1 090649Z 05005KT M04/M07 A3028 RMK A01 T10421072  RH  080%=      5-min Rain = 0
KBR1 090650Z 04005KT M04/M07 A3028 RMK A01 T10431073  RH  079%=      5-min Rain = 0
KBR1 090651Z 05005KT M04/M07 A3028 RMK A01 T10441074  RH  080%=      5-min Rain = 0
KBR1 090652Z 04005KT M04/M07 A3028 RMK A01 T10441073  RH  080%=      5-min Rain = 0
KBR1 090653Z 04005KT M04/M07 A3028 RMK A01 T10441074  RH  080%=      5-min Rain = 0
KBR1 090654Z 04005KT M04/M07 A3028 RMK A01 T10441074  RH  080%=      5-min Rain = 0
KBR1 090655Z 04006KT M05/M07 A3028 RMK A01 T10451074  RH  080%=      5-min Rain = 0
KBR1 090656Z 05006KT M05/M07 A3028 RMK A01 T10451074  RH  080%=      5-min Rain = 0
KBR1 090657Z 05006KT M05/M07 A3028 RMK A01 T10451074  RH  081%=      5-min Rain = 0
KBR1 090658Z 04007KT M05/M07 A3028 RMK A01 T10461074  RH  081%=      5-min Rain = 0
KBR1 090659Z 04007KT M05/M07 A3028 RMK A01 T10461074  RH  081%=      5-min Rain = 0
KBR1 090700Z 04007KT M05/M07 A3028 RMK A01 T10461074  RH  081%=      5-min Rain = 0
KBR1 090701Z 04007KT M05/M07 A3028 RMK A01 T10471074  RH  081%=      5-min Rain = 0
KBR1 090702Z 04006KT M05/M07 A3028 RMK A01 T10471074  RH  082%=      5-min Rain = 0
KBR1 090703Z 04006KT M05/M07 A3028 RMK A01 T10471073  RH  082%=      5-min Rain = 0
KBR1 090704Z 04005KT M05/M07 A3028 RMK A01 T10471073  RH  082%=      5-min Rain = 0
KBR1 090705Z 04005KT M05/M07 A3028 RMK A01 T10481073  RH  083%=      5-min Rain = 0
KBR1 090706Z 04004KT M05/M07 A3028 RMK A01 T10481073  RH  083%=      5-min Rain = 0
KBR1 090707Z 04005KT M05/M07 A3028 RMK A01 T10471072  RH  083%=      5-min Rain = 0
KBR1 090708Z 04005KT M05/M07 A3028 RMK A01 T10461071  RH  083%=      5-min Rain = 0
KBR1 090709Z 04005KT M05/M07 A3028 RMK A01 T10451070  RH  082%=      5-min Rain = 0
KBR1 090710Z 04006KT M04/M07 A3028 RMK A01 T10431070  RH  082%=      5-min Rain = 0
KBR1 090711Z 04006KT M04/M07 A3028 RMK A01 T10431070  RH  081%=      5-min Rain = 0
KBR1 090712Z 03006KT M04/M07 A3028 RMK A01 T10421070  RH  081%=      5-min Rain = 0
KBR1 090713Z 03005KT M04/M07 A3028 RMK A01 T10421071  RH  081%=      5-min Rain = 0
KBR1 090714Z 03004KT M04/M07 A3028 RMK A01 T10421071  RH  081%=      5-min Rain = 0
KBR1 090715Z 03004KT M04/M07 A3028 RMK A01 T10431071  RH  081%=      5-min Rain = 0
KBR1 090716Z 03004KT M04/M07 A3028 RMK A01 T10441071  RH  081%=      5-min Rain = 0
KBR1 090717Z 02003KT M05/M07 A3028 RMK A01 T10451072  RH  082%=      5-min Rain = 0
KBR1 090718Z 03004KT M05/M07 A3028 RMK A01 T10471072  RH  083%=      5-min Rain = 0
KBR1 090719Z 02004KT M05/M07 A3028 RMK A01 T10471071  RH  083%=      5-min Rain = 0
KBR1 090720Z 02004KT M05/M07 A3028 RMK A01 T10461070  RH  084%=      5-min Rain = 0
KBR1 090721Z 03004KT M05/M07 A3028 RMK A01 T10451069  RH  083%=      5-min Rain = 0
KBR1 090722Z 03003KT M04/M07 A3028 RMK A01 T10431069  RH  082%=      5-min Rain = 0
KBR1 090723Z 02004KT M04/M07 A3029 RMK A01 T10421069  RH  082%=      5-min Rain = 0
KBR1 090724Z 02004KT M04/M07 A3029 RMK A01 T10411069  RH  081%=      5-min Rain = 0
KBR1 090725Z 01004KT M04/M07 A3029 RMK A01 T10411069  RH  081%=      5-min Rain = 0
KBR1 090726Z 01004KT M04/M07 A3029 RMK A01 T10411070  RH  081%=      5-min Rain = 0
KBR1 090727Z 01004KT M04/M07 A3029 RMK A01 T10411070  RH  080%=      5-min Rain = 0
KBR1 090728Z 36004KT M04/M07 A3029 RMK A01 T10411070  RH  080%=      5-min Rain = 0
KBR1 090729Z 35004KT M04/M07 A3029 RMK A01 T10421071  RH  080%=      5-min Rain = 0
KBR1 090730Z 35004KT M04/M07 A3029 RMK A01 T10431071  RH  081%=      5-min Rain = 0
KBR1 090731Z 36005KT M04/M07 A3029 RMK A01 T10441072  RH  081%=      5-min Rain = 0
KBR1 090732Z 36005KT M05/M07 A3029 RMK A01 T10461073  RH  082%=      5-min Rain = 0
KBR1 090733Z 35004KT M05/M07 A3029 RMK A01 T10461073  RH  082%=      5-min Rain = 0
KBR1 090734Z 35003KT M05/M07 A3029 RMK A01 T10471073  RH  082%=      5-min Rain = 0
KBR1 090735Z 35004KT M05/M07 A3029 RMK A01 T10471073  RH  082%=      5-min Rain = 0
KBR1 090736Z 00004KT M05/M07 A3029 RMK A01 T10481073  RH  083%=      5-min Rain = 0
KBR1 090737Z 00004KT M05/M07 A3029 RMK A01 T10491074  RH  083%=      5-min Rain = 0
KBR1 090738Z 01004KT M05/M07 A3029 RMK A01 T10491074  RH  083%=      5-min Rain = 0
KBR1 090739Z 01004KT M05/M07 A3029 RMK A01 T10501074  RH  083%=      5-min Rain = 0
KBR1 090740Z 01004KT M05/M07 A3029 RMK A01 T10501074  RH  084%=      5-min Rain = 0
KBR1 090741Z 01004KT M05/M07 A3029 RMK A01 T10511073  RH  084%=      5-min Rain = 0
KBR1 090742Z 01004KT M05/M07 A3029 RMK A01 T10511073  RH  084%=      5-min Rain = 0
KBR1 090743Z 01004KT M05/M07 A3029 RMK A01 T10511073  RH  084%=      5-min Rain = 0
KBR1 090744Z 01004KT M05/M07 A3029 RMK A01 T10511074  RH  084%=      5-min Rain = 0
KBR1 090745Z 01004KT M05/M07 A3029 RMK A01 T10501073  RH  084%=      5-min Rain = 0
KBR1 090746Z 02004KT M05/M07 A3029 RMK A01 T10501073  RH  084%=      5-min Rain = 0
KBR1 090747Z 02003KT M05/M07 A3029 RMK A01 T10481072  RH  084%=      5-min Rain = 0
KBR1 090748Z 02003KT M05/M07 A3029 RMK A01 T10481072  RH  083%=      5-min Rain = 0
KBR1 090749Z 02003KT M05/M07 A3029 RMK A01 T10471072  RH  083%=      5-min Rain = 0
KBR1 090750Z 02003KT M05/M07 A3029 RMK A01 T10471071  RH  083%=      5-min Rain = 0
KBR1 090751Z 03003KT M05/M07 A3029 RMK A01 T10461071  RH  083%=      5-min Rain = 0
KBR1 090752Z 01004KT M05/M07 A3029 RMK A01 T10461071  RH  082%=      5-min Rain = 0
KBR1 090753Z 01005KT M05/M07 A3029 RMK A01 T10451071  RH  082%=      5-min Rain = 0
KBR1 090754Z 01006KT M05/M07 A3029 RMK A01 T10451071  RH  082%=      5-min Rain = 0
KBR1 090755Z 01007KT M05/M07 A3029 RMK A01 T10451071  RH  082%=      5-min Rain = 0
KBR1 090756Z 01007KT M04/M07 A3029 RMK A01 T10441070  RH  082%=      5-min Rain = 0
KBR1 090757Z 00008KT M04/M07 A3029 RMK A01 T10441071  RH  082%=      5-min Rain = 0
KBR1 090758Z 00008KT M04/M07 A3029 RMK A01 T10441071  RH  081%=      5-min Rain = 0
KBR1 090759Z 00008KT M04/M07 A3029 RMK A01 T10431071  RH  081%=      5-min Rain = 0
KBR1 090800Z 00007KT M04/M07 A3029 RMK A01 T10431071  RH  081%=      5-min Rain = 0
KBR1 090801Z 01007KT M04/M07 A3029 RMK A01 T10431071  RH  081%=      5-min Rain = 0
KBR1 090802Z 01007KT M04/M07 A3029 RMK A01 T10431071  RH  081%=      5-min Rain = 0
KBR1 090803Z 01007KT M04/M07 A3029 RMK A01 T10431071  RH  081%=      5-min Rain = 0
KBR1 090804Z 00008KT M04/M07 A3029 RMK A01 T10431071  RH  081%=      5-min Rain = 0
KBR1 090805Z 01008KT M04/M07 A3029 RMK A01 T10431071  RH  081%=      5-min Rain = 0
KBR1 090806Z 01008KT M04/M07 A3029 RMK A01 T10431071  RH  081%=      5-min Rain = 0
KBR1 090807Z 01008KT M04/M07 A3029 RMK A01 T10421071  RH  080%=      5-min Rain = 0
KBR1 090808Z 01008KT M04/M07 A3029 RMK A01 T10421071  RH  080%=      5-min Rain = 0
KBR1 090809Z 01008KT M04/M07 A3029 RMK A01 T10421071  RH  080%=      5-min Rain = 0
KBR1 090810Z 01008KT M04/M07 A3029 RMK A01 T10421071  RH  080%=      5-min Rain = 0
KBR1 090811Z 01008KT M04/M07 A3029 RMK A01 T10411071  RH  080%=      5-min Rain = 0
KBR1 090812Z 01008KT M04/M07 A3029 RMK A01 T10411070  RH  080%=      5-min Rain = 0
KBR1 090813Z 01008KT M04/M07 A3029 RMK A01 T10401070  RH  080%=      5-min Rain = 0
KBR1 090814Z 01008KT M04/M07 A3029 RMK A01 T10401070  RH  079%=      5-min Rain = 0
KBR1 090815Z 02008KT M04/M07 A3029 RMK A01 T10391070  RH  079%=      5-min Rain = 0
KBR1 090816Z 02008KT M04/M07 A3029 RMK A01 T10391070  RH  079%=      5-min Rain = 0
KBR1 090817Z 02007KT M04/M07 A3029 RMK A01 T10391070  RH  079%=      5-min Rain = 0
KBR1 090818Z 02007KT M04/M07 A3029 RMK A01 T10391070  RH  079%=      5-min Rain = 0
KBR1 090819Z 02007KT M04/M07 A3029 RMK A01 T10391069  RH  079%=      5-min Rain = 0
KBR1 090820Z 02007KT M04/M07 A3029 RMK A01 T10391070  RH  079%=      5-min Rain = 0
KBR1 090821Z 02006KT M04/M07 A3029 RMK A01 T10391070  RH  079%=      5-min Rain = 0
KBR1 090822Z 02006KT M04/M07 A3029 RMK A01 T10391069  RH  079%=      5-min Rain = 0
KBR1 090823Z 03006KT M04/M07 A3029 RMK A01 T10391069  RH  079%=      5-min Rain = 0
KBR1 090824Z 03006KT M04/M07 A3029 RMK A01 T10391069  RH  079%=      5-min Rain = 0
KBR1 090825Z 03005KT M04/M07 A3029 RMK A01 T10391070  RH  079%=      5-min Rain = 0
KBR1 090826Z 03005KT M04/M07 A3029 RMK A01 T10381070  RH  079%=      5-min Rain = 0
KBR1 090827Z 03006KT M04/M07 A3029 RMK A01 T10381070  RH  079%=      5-min Rain = 0
KBR1 090828Z 02006KT M04/M07 A3029 RMK A01 T10381070  RH  078%=      5-min Rain = 0
KBR1 090829Z 03006KT M04/M07 A3029 RMK A01 T10381071  RH  078%=      5-min Rain = 0
KBR1 090830Z 02006KT M04/M07 A3029 RMK A01 T10371070  RH  078%=      5-min Rain = 0
KBR1 090831Z 02006KT M04/M07 A3029 RMK A01 T10371070  RH  078%=      5-min Rain = 0
KBR1 090832Z 02006KT M04/M07 A3029 RMK A01 T10371071  RH  078%=      5-min Rain = 0
KBR1 090833Z 02005KT M04/M07 A3029 RMK A01 T10371071  RH  077%=      5-min Rain = 0
KBR1 090834Z 02005KT M04/M07 A3029 RMK A01 T10371071  RH  077%=      5-min Rain = 0
KBR1 090835Z 01005KT M04/M07 A3029 RMK A01 T10381071  RH  078%=      5-min Rain = 0
KBR1 090836Z 02005KT M04/M07 A3029 RMK A01 T10381072  RH  078%=      5-min Rain = 0
KBR1 090837Z 02005KT M04/M07 A3029 RMK A01 T10391072  RH  078%=      5-min Rain = 0
KBR1 090838Z 02005KT M04/M07 A3029 RMK A01 T10391072  RH  078%=      5-min Rain = 0
KBR1 090839Z 02005KT M04/M07 A3029 RMK A01 T10401073  RH  078%=      5-min Rain = 0
KBR1 090840Z 02005KT M04/M07 A3029 RMK A01 T10401073  RH  078%=      5-min Rain = 0
KBR1 090841Z 01005KT M04/M07 A3029 RMK A01 T10411073  RH  078%=      5-min Rain = 0
KBR1 090842Z 01005KT M04/M07 A3029 RMK A01 T10411073  RH  078%=      5-min Rain = 0
KBR1 090843Z 01005KT M04/M07 A3029 RMK A01 T10411073  RH  078%=      5-min Rain = 0
KBR1 090844Z 01005KT M04/M07 A3029 RMK A01 T10421073  RH  079%=      5-min Rain = 0
KBR1 090845Z 01006KT M04/M07 A3029 RMK A01 T10421074  RH  079%=      5-min Rain = 0
KBR1 090846Z 01005KT M04/M07 A3029 RMK A01 T10431074  RH  079%=      5-min Rain = 0
KBR1 090847Z 01006KT M04/M08 A3029 RMK A01 T10441075  RH  079%=      5-min Rain = 0
KBR1 090848Z 01006KT M05/M07 A3029 RMK A01 T10451074  RH  080%=      5-min Rain = 0
KBR1 090849Z 00006KT M05/M07 A3029 RMK A01 T10461074  RH  081%=      5-min Rain = 0
KBR1 090850Z 00005KT M05/M07 A3029 RMK A01 T10451073  RH  081%=      5-min Rain = 0
KBR1 090851Z 35005KT M05/M07 A3029 RMK A01 T10461073  RH  081%=      5-min Rain = 0
KBR1 090852Z 34004KT M05/M07 A3029 RMK A01 T10471074  RH  081%=      5-min Rain = 0
KBR1 090853Z 36006KT M05/M08 A3029 RMK A01 T10481076  RH  081%=      5-min Rain = 0
KBR1 090854Z 36005KT M05/M08 A3029 RMK A01 T10501076  RH  082%=      5-min Rain = 0
KBR1 090855Z 35004KT M05/M08 A3029 RMK A01 T10501075  RH  083%=      5-min Rain = 0
KBR1 090856Z 00005KT M05/M08 A3029 RMK A01 T10501075  RH  083%=      5-min Rain = 0
KBR1 090857Z 00005KT M05/M08 A3029 RMK A01 T10511075  RH  083%=      5-min Rain = 0
KBR1 090858Z 36004KT M05/M08 A3029 RMK A01 T10501075  RH  083%=      5-min Rain = 0
KBR1 090859Z 00004KT M05/M08 A3029 RMK A01 T10501075  RH  083%=      5-min Rain = 0
KBR1 090900Z 01004KT M05/M08 A3029 RMK A01 T10511075  RH  083%=      5-min Rain = 0
KBR1 090901Z 01004KT M05/M08 A3029 RMK A01 T10511075  RH  083%=      5-min Rain = 0
KBR1 090902Z 01004KT M05/M08 A3029 RMK A01 T10521076  RH  083%=      5-min Rain = 0
KBR1 090903Z 02004KT M05/M08 A3029 RMK A01 T10521076  RH  083%=      5-min Rain = 0
KBR1 090904Z 02004KT M05/M08 A3029 RMK A01 T10521076  RH  083%=      5-min Rain = 0
KBR1 090905Z 02004KT M05/M08 A3029 RMK A01 T10531077  RH  083%=      5-min Rain = 0
KBR1 090906Z 02005KT M05/M08 A3029 RMK A01 T10531077  RH  083%=      5-min Rain = 0
KBR1 090907Z 02005KT M05/M08 A3029 RMK A01 T10521076  RH  083%=      5-min Rain = 0
KBR1 090908Z 02005KT M05/M08 A3029 RMK A01 T10511075  RH  084%=      5-min Rain = 0
KBR1 090909Z 02004KT M05/M07 A3029 RMK A01 T10501074  RH  083%=      5-min Rain = 0
KBR1 090910Z 02004KT M05/M07 A3029 RMK A01 T10481073  RH  083%=      5-min Rain = 0
KBR1 090911Z 02004KT M05/M07 A3029 RMK A01 T10471072  RH  082%=      5-min Rain = 0
KBR1 090912Z 02004KT M05/M07 A3029 RMK A01 T10461072  RH  082%=      5-min Rain = 0
KBR1 090913Z 02004KT M05/M07 A3029 RMK A01 T10451072  RH  081%=      5-min Rain = 0
KBR1 090914Z 03005KT M05/M07 A3029 RMK A01 T10451072  RH  081%=      5-min Rain = 0
KBR1 090915Z 03005KT M04/M07 A3029 RMK A01 T10441072  RH  081%=      5-min Rain = 0
KBR1 090916Z 02005KT M04/M07 A3029 RMK A01 T10431072  RH  080%=      5-min Rain = 0
KBR1 090917Z 02005KT M04/M07 A3029 RMK A01 T10421072  RH  080%=      5-min Rain = 0
KBR1 090918Z 02005KT M04/M07 A303 RMK A01 T10421072  RH  079%=      5-min Rain = 0
KBR1 090919Z 01007KT M04/M07 A303 RMK A01 T10421072  RH  079%=      5-min Rain = 0
KBR1 090920Z 01007KT M04/M07 A303 RMK A01 T10421072  RH  080%=      5-min Rain = 0
KBR1 090921Z 01008KT M04/M07 A303 RMK A01 T10431072  RH  080%=      5-min Rain = 0
KBR1 090922Z 01008KT M04/M07 A303 RMK A01 T10421072  RH  080%=      5-min Rain = 0
KBR1 090923Z 01009KT M04/M07 A303 RMK A01 T10421072  RH  080%=      5-min Rain = 0
KBR1 090924Z 01008KT M04/M07 A303 RMK A01 T10421072  RH  080%=      5-min Rain = 0
KBR1 090925Z 00008KT M04/M07 A303 RMK A01 T10421072  RH  079%=      5-min Rain = 0
KBR1 090926Z 36007KT M04/M07 A303 RMK A01 T10421072  RH  079%=      5-min Rain = 0
KBR1 090927Z 36007KT M04/M07 A303 RMK A01 T10431073  RH  079%=      5-min Rain = 0
KBR1 090928Z 36006KT M04/M07 A303 RMK A01 T10441074  RH  080%=      5-min Rain = 0
KBR1 090929Z 36005KT M05/M07 A303 RMK A01 T10451074  RH  080%=      5-min Rain = 0
KBR1 090930Z 00005KT M05/M08 A303 RMK A01 T10461075  RH  081%=      5-min Rain = 0
KBR1 090931Z 00005KT M05/M08 A303 RMK A01 T10481076  RH  081%=      5-min Rain = 0
KBR1 090932Z 01006KT M05/M08 A303 RMK A01 T10491076  RH  082%=      5-min Rain = 0
KBR1 090933Z 01006KT M05/M08 A303 RMK A01 T10501075  RH  082%=      5-min Rain = 0
KBR1 090934Z 01006KT M05/M08 A303 RMK A01 T10501075  RH  082%=      5-min Rain = 0
KBR1 090935Z 02006KT M05/M08 A303 RMK A01 T10491075  RH  082%=      5-min Rain = 0
KBR1 090936Z 02005KT M05/M07 A303 RMK A01 T10481074  RH  082%=      5-min Rain = 0
KBR1 090937Z 02005KT M05/M07 A303 RMK A01 T10481074  RH  082%=      5-min Rain = 0
KBR1 090938Z 02004KT M05/M07 A303 RMK A01 T10481074  RH  082%=      5-min Rain = 0
KBR1 090939Z 02004KT M05/M07 A303 RMK A01 T10481074  RH  082%=      5-min Rain = 0
KBR1 090940Z 02004KT M05/M07 A3029 RMK A01 T10471074  RH  081%=      5-min Rain = 0
KBR1 090941Z 02004KT M05/M07 A3029 RMK A01 T10471074  RH  081%=      5-min Rain = 0
KBR1 090942Z 02003KT M05/M07 A3029 RMK A01 T10461074  RH  081%=      5-min Rain = 0
KBR1 090943Z 01004KT M05/M07 A3029 RMK A01 T10461074  RH  081%=      5-min Rain = 0
KBR1 090944Z 01004KT M05/M07 A3029 RMK A01 T10461074  RH  080%=      5-min Rain = 0
KBR1 090945Z 00004KT M05/M07 A3029 RMK A01 T10451074  RH  080%=      5-min Rain = 0
KBR1 090946Z 00003KT M05/M07 A3029 RMK A01 T10451074  RH  080%=      5-min Rain = 0
KBR1 090947Z 35002KT M05/M07 A3029 RMK A01 T10461074  RH  081%=      5-min Rain = 0
KBR1 090948Z 35002KT M05/M07 A3029 RMK A01 T10461074  RH  081%=      5-min Rain = 0
KBR1 090949Z 36002KT M05/M07 A3029 RMK A01 T10461074  RH  081%=      5-min Rain = 0
KBR1 090950Z 36002KT M05/M08 A3029 RMK A01 T10471075  RH  081%=      5-min Rain = 0
KBR1 090951Z 00002KT M05/M08 A3029 RMK A01 T10471075  RH  081%=      5-min Rain = 0
KBR1 090952Z 36002KT M05/M08 A3029 RMK A01 T10471075  RH  081%=      5-min Rain = 0
KBR1 090953Z 35003KT M05/M08 A3029 RMK A01 T10481075  RH  082%=      5-min Rain = 0
KBR1 090954Z 36003KT M05/M07 A3029 RMK A01 T10481074  RH  082%=      5-min Rain = 0
KBR1 090955Z 00004KT M05/M07 A3029 RMK A01 T10481074  RH  082%=      5-min Rain = 0
KBR1 090956Z 01004KT M05/M07 A3029 RMK A01 T10481074  RH  082%=      5-min Rain = 0
KBR1 090957Z 01004KT M05/M07 A3029 RMK A01 T10481073  RH  083%=      5-min Rain = 0
KBR1 090958Z 01003KT M05/M07 A3029 RMK A01 T10481073  RH  083%=      5-min Rain = 0
KBR1 090959Z 01003KT M05/M07 A3029 RMK A01 T10481073  RH  083%=      5-min Rain = 0
KBR1 091000Z 01003KT M05/M07 A3029 RMK A01 T10481074  RH  083%=      5-min Rain = 0
KBR1 091001Z 02002KT M05/M07 A3029 RMK A01 T10481073  RH  083%=      5-min Rain = 0
KBR1 091002Z 02002KT M05/M07 A3029 RMK A01 T10471072  RH  082%=      5-min Rain = 0
KBR1 091003Z 02002KT M05/M07 A3029 RMK A01 T10451072  RH  082%=      5-min Rain = 0
KBR1 091004Z 01002KT M05/M07 A3029 RMK A01 T10451072  RH  081%=      5-min Rain = 0
KBR1 091005Z 02002KT M04/M07 A3029 RMK A01 T10441072  RH  081%=      5-min Rain = 0
KBR1 091006Z 02003KT M04/M07 A3029 RMK A01 T10431072  RH  080%=      5-min Rain = 0
KBR1 091007Z 03003KT M04/M07 A3029 RMK A01 T10421072  RH  080%=      5-min Rain = 0
KBR1 091008Z 03003KT M04/M07 A3028 RMK A01 T10411072  RH  079%=      5-min Rain = 0
KBR1 091009Z 03003KT M04/M07 A3028 RMK A01 T10401072  RH  079%=      5-min Rain = 0
KBR1 091010Z 02002KT M04/M07 A3028 RMK A01 T10391072  RH  078%=      5-min Rain = 0
KBR1 091011Z 02002KT M04/M07 A3028 RMK A01 T10391072  RH  078%=      5-min Rain = 0
KBR1 091012Z 01003KT M04/M07 A3028 RMK A01 T10391072  RH  078%=      5-min Rain = 0
KBR1 091013Z 01003KT M04/M07 A3028 RMK A01 T10391073  RH  077%=      5-min Rain = 0
KBR1 091014Z 01003KT M04/M07 A3028 RMK A01 T10391073  RH  077%=      5-min Rain = 0
KBR1 091015Z 01003KT M04/M07 A3028 RMK A01 T10391073  RH  078%=      5-min Rain = 0
KBR1 091016Z 01003KT M04/M07 A3028 RMK A01 T10401073  RH  078%=      5-min Rain = 0
KBR1 091017Z 01003KT M04/M07 A3028 RMK A01 T10411073  RH  078%=      5-min Rain = 0
KBR1 091018Z 01003KT M04/M07 A3028 RMK A01 T10421073  RH  079%=      5-min Rain = 0
KBR1 091019Z 01003KT M04/M07 A3028 RMK A01 T10431074  RH  079%=      5-min Rain = 0
KBR1 091020Z 01003KT M04/M08 A3028 RMK A01 T10431075  RH  079%=      5-min Rain = 0
KBR1 091021Z 01003KT M04/M08 A3028 RMK A01 T10441075  RH  079%=      5-min Rain = 0
KBR1 091022Z 02003KT M04/M08 A3028 RMK A01 T10441075  RH  079%=      5-min Rain = 0
KBR1 091023Z 02003KT M05/M08 A3028 RMK A01 T10451075  RH  079%=      5-min Rain = 0
KBR1 091024Z 02003KT M05/M08 A3028 RMK A01 T10461076  RH  080%=      5-min Rain = 0
KBR1 091025Z 02003KT M05/M08 A3028 RMK A01 T10461076  RH  080%=      5-min Rain = 0
KBR1 091026Z 01003KT M05/M08 A3028 RMK A01 T10461076  RH  080%=      5-min Rain = 0
KBR1 091027Z 01002KT M05/M08 A3028 RMK A01 T10471076  RH  080%=      5-min Rain = 0
KBR1 091028Z 01003KT M05/M08 A3028 RMK A01 T10471075  RH  080%=      5-min Rain = 0
KBR1 091029Z 01003KT M05/M08 A3028 RMK A01 T10471076  RH  081%=      5-min Rain = 0
KBR1 091030Z 01003KT M05/M08 A3028 RMK A01 T10471075  RH  081%=      5-min Rain = 0
KBR1 091031Z 02004KT M05/M08 A3028 RMK A01 T10481076  RH  081%=      5-min Rain = 0
KBR1 091032Z 01004KT M05/M08 A3028 RMK A01 T10481075  RH  081%=      5-min Rain = 0
KBR1 091033Z 01003KT M05/M08 A3028 RMK A01 T10481076  RH  081%=      5-min Rain = 0
KBR1 091034Z 01003KT M05/M08 A3028 RMK A01 T10481076  RH  081%=      5-min Rain = 0
KBR1 091035Z 00002KT M05/M08 A3028 RMK A01 T10481076  RH  081%=      5-min Rain = 0
KBR1 091036Z 35000KT M05/M08 A3028 RMK A01 T10481076  RH  081%=      5-min Rain = 0
KBR1 091037Z 31000KT M05/M08 A3028 RMK A01 T10481076  RH  081%=      5-min Rain = 0
KBR1 091038Z 33001KT M05/M08 A3028 RMK A01 T10481076  RH  081%=      5-min Rain = 0
KBR1 091039Z 32001KT M05/M08 A3028 RMK A01 T10481076  RH  081%=      5-min Rain = 0
KBR1 091040Z 33002KT M05/M08 A3028 RMK A01 T10481076  RH  081%=      5-min Rain = 0
KBR1 091041Z 31001KT M05/M08 A3028 RMK A01 T10491077  RH  080%=      5-min Rain = 0
KBR1 091042Z 33003KT M05/M08 A3028 RMK A01 T10501078  RH  081%=      5-min Rain = 0
KBR1 091043Z 34003KT M05/M08 A3028 RMK A01 T10511078  RH  081%=      5-min Rain = 0
KBR1 091044Z 34004KT M05/M08 A3028 RMK A01 T10511078  RH  081%=      5-min Rain = 0
KBR1 091045Z 35004KT M05/M08 A3028 RMK A01 T10521078  RH  082%=      5-min Rain = 0
KBR1 091046Z 35003KT M05/M08 A3028 RMK A01 T10521078  RH  082%=      5-min Rain = 0
KBR1 091047Z 34003KT M05/M08 A3028 RMK A01 T10531079  RH  082%=      5-min Rain = 0
KBR1 091048Z 34003KT M05/M08 A3028 RMK A01 T10531079  RH  082%=      5-min Rain = 0
KBR1 091049Z 34002KT M05/M08 A3028 RMK A01 T10541079  RH  083%=      5-min Rain = 0
KBR1 091050Z 34002KT M05/M08 A3028 RMK A01 T10541078  RH  083%=      5-min Rain = 0
KBR1 091051Z 34002KT M05/M08 A3028 RMK A01 T10531077  RH  083%=      5-min Rain = 0
KBR1 091052Z 34003KT M05/M08 A3029 RMK A01 T10521077  RH  083%=      5-min Rain = 0
KBR1 091053Z 34003KT M05/M08 A3029 RMK A01 T10521078  RH  082%=      5-min Rain = 0
KBR1 091054Z 34003KT M05/M08 A3029 RMK A01 T10531079  RH  082%=      5-min Rain = 0
KBR1 091055Z 34003KT M05/M08 A3028 RMK A01 T10541079  RH  082%=      5-min Rain = 0
KBR1 091056Z 34002KT M05/M08 A3028 RMK A01 T10541080  RH  082%=      5-min Rain = 0
KBR1 091057Z 34002KT M06/M08 A3028 RMK A01 T10551080  RH  083%=      5-min Rain = 0
KBR1 091058Z 34002KT M06/M08 A3028 RMK A01 T10551079  RH  083%=      5-min Rain = 0
KBR1 091059Z 34002KT M06/M08 A3028 RMK A01 T10551079  RH  083%=      5-min Rain = 0
KBR1 091100Z 34002KT M06/M08 A3028 RMK A01 T10551079  RH  083%=      5-min Rain = 0
KBR1 091101Z 33003KT M05/M08 A3029 RMK A01 T10541078  RH  083%=      5-min Rain = 0
KBR1 091102Z 33003KT M05/M08 A3029 RMK A01 T10541078  RH  083%=      5-min Rain = 0
KBR1 091103Z 33003KT M05/M08 A3029 RMK A01 T10531078  RH  083%=      5-min Rain = 0
KBR1 091104Z 33003KT M05/M08 A3029 RMK A01 T10531078  RH  083%=      5-min Rain = 0
KBR1 091105Z 33003KT M05/M08 A3029 RMK A01 T10531078  RH  082%=      5-min Rain = 0
KBR1 091106Z 34003KT M05/M08 A3029 RMK A01 T10541079  RH  082%=      5-min Rain = 0
KBR1 091107Z 34002KT M06/M08 A3029 RMK A01 T10551080  RH  082%=      5-min Rain = 0
KBR1 091108Z 34001KT M06/M08 A3029 RMK A01 T10561083  RH  082%=      5-min Rain = 0
KBR1 091109Z 34001KT M06/M08 A3029 RMK A01 T10591084  RH  082%=      5-min Rain = 0
KBR1 091110Z 32002KT M06/M08 A3029 RMK A01 T10601083  RH  084%=      5-min Rain = 0
KBR1 091111Z 32002KT M06/M08 A3029 RMK A01 T10601083  RH  084%=      5-min Rain = 0
KBR1 091112Z 33002KT M06/M08 A3028 RMK A01 T10611082  RH  085%=      5-min Rain = 0
KBR1 091113Z 33002KT M06/M08 A3028 RMK A01 T10611083  RH  085%=      5-min Rain = 0
KBR1 091114Z 33001KT M06/M08 A3028 RMK A01 T10611081  RH  086%=      5-min Rain = 0
KBR1 091115Z 33001KT M06/M08 A3028 RMK A01 T10601079  RH  086%=      5-min Rain = 0
KBR1 091116Z 33002KT M06/M08 A3028 RMK A01 T10581078  RH  086%=      5-min Rain = 0
KBR1 091117Z 33002KT M06/M08 A3028 RMK A01 T10571078  RH  085%=      5-min Rain = 0
KBR1 091118Z 33002KT M06/M08 A3028 RMK A01 T10561078  RH  085%=      5-min Rain = 0
KBR1 091119Z 33002KT M06/M08 A3028 RMK A01 T10551077  RH  085%=      5-min Rain = 0
KBR1 091120Z 33002KT M06/M08 A3028 RMK A01 T10551078  RH  084%=      5-min Rain = 0
KBR1 091121Z 33002KT M06/M08 A3028 RMK A01 T10551078  RH  084%=      5-min Rain = 0
KBR1 091122Z 34002KT M05/M08 A3028 RMK A01 T10541078  RH  083%=      5-min Rain = 0
KBR1 091123Z 35002KT M05/M08 A3028 RMK A01 T10541079  RH  083%=      5-min Rain = 0
KBR1 091124Z 35002KT M05/M08 A3028 RMK A01 T10541079  RH  082%=      5-min Rain = 0
KBR1 091125Z 35002KT M05/M08 A3028 RMK A01 T10541079  RH  082%=      5-min Rain = 0
KBR1 091126Z 35002KT M05/M08 A3028 RMK A01 T10531079  RH  082%=      5-min Rain = 0
KBR1 091127Z 35002KT M05/M08 A3028 RMK A01 T10531079  RH  082%=      5-min Rain = 0
KBR1 091128Z 35002KT M05/M08 A3028 RMK A01 T10531079  RH  082%=      5-min Rain = 0
KBR1 091129Z 35002KT M05/M08 A3028 RMK A01 T10531080  RH  082%=      5-min Rain = 0
KBR1 091130Z 35002KT M05/M08 A3028 RMK A01 T10531079  RH  082%=      5-min Rain = 0
KBR1 091131Z 36002KT M05/M08 A3028 RMK A01 T10531079  RH  082%=      5-min Rain = 0
KBR1 091132Z 00002KT M05/M08 A3028 RMK A01 T10521079  RH  082%=      5-min Rain = 0
KBR1 091133Z 00002KT M05/M08 A3028 RMK A01 T10521080  RH  081%=      5-min Rain = 0
KBR1 091134Z 00002KT M05/M08 A3028 RMK A01 T10521080  RH  081%=      5-min Rain = 0
KBR1 091135Z 00002KT M05/M08 A3028 RMK A01 T10521080  RH  081%=      5-min Rain = 0
KBR1 091136Z 00002KT M05/M08 A3028 RMK A01 T10531080  RH  081%=      5-min Rain = 0
KBR1 091137Z 00002KT M05/M08 A3028 RMK A01 T10521080  RH  081%=      5-min Rain = 0
KBR1 091138Z 00002KT M05/M08 A3028 RMK A01 T10521079  RH  081%=      5-min Rain = 0
KBR1 091139Z 00002KT M05/M08 A3029 RMK A01 T10521079  RH  081%=      5-min Rain = 0
KBR1 091140Z 34002KT M05/M08 A3029 RMK A01 T10521079  RH  081%=      5-min Rain = 0
KBR1 091141Z 33002KT M05/M08 A3029 RMK A01 T10531080  RH  081%=      5-min Rain = 0
KBR1 091142Z 32002KT M05/M08 A3029 RMK A01 T10531080  RH  081%=      5-min Rain = 0
KBR1 091143Z 32002KT M05/M08 A3029 RMK A01 T10541082  RH  081%=      5-min Rain = 0
KBR1 091144Z 32002KT M06/M09 A3029 RMK A01 T10591090  RH  079%=      5-min Rain = 0
KBR1 091145Z 32002KT M06/M09 A3029 RMK A01 T10631091  RH  081%=      5-min Rain = 0
KBR1 091146Z 33002KT M07/M09 A3029 RMK A01 T10651090  RH  082%=      5-min Rain = 0
KBR1 091147Z 33002KT M07/M09 A3029 RMK A01 T10661089  RH  084%=      5-min Rain = 0
KBR1 091148Z 34002KT M07/M09 A303 RMK A01 T10661087  RH  085%=      5-min Rain = 0
KBR1 091149Z 34002KT M07/M09 A303 RMK A01 T10661086  RH  086%=      5-min Rain = 0
KBR1 091150Z 35002KT M07/M09 A303 RMK A01 T10661087  RH  085%=      5-min Rain = 0
KBR1 091151Z 34002KT M07/M09 A303 RMK A01 T10671088  RH  085%=      5-min Rain = 0
KBR1 091152Z 35003KT M07/M09 A303 RMK A01 T10671087  RH  086%=      5-min Rain = 0
KBR1 091153Z 35003KT M07/M09 A303 RMK A01 T10671086  RH  086%=      5-min Rain = 0
KBR1 091154Z 35003KT M07/M09 A303 RMK A01 T10671085  RH  087%=      5-min Rain = 0
KBR1 091155Z 34003KT M07/M08 A303 RMK A01 T10661084  RH  087%=      5-min Rain = 0
KBR1 091156Z 34003KT M06/M08 A303 RMK A01 T10641083  RH  086%=      5-min Rain = 0
KBR1 091157Z 34002KT M06/M08 A303 RMK A01 T10641084  RH  086%=      5-min Rain = 0
KBR1 091158Z 33003KT M06/M08 A303 RMK A01 T10641084  RH  086%=      5-min Rain = 0
KBR1 091159Z 32003KT M06/M08 A303 RMK A01 T10631084  RH  085%=      5-min Rain = 0
KBR1 091200Z 32003KT M06/M08 A303 RMK A01 T10631084  RH  085%=      5-min Rain = 0
KBR1 091201Z 32003KT M06/M08 A303 RMK A01 T10631083  RH  086%=      5-min Rain = 0
KBR1 091202Z 32003KT M06/M08 A303 RMK A01 T10621082  RH  086%=      5-min Rain = 0
KBR1 091203Z 33003KT M06/M08 A303 RMK A01 T10611082  RH  085%=      5-min Rain = 0
KBR1 091204Z 33002KT M06/M08 A303 RMK A01 T10601082  RH  085%=      5-min Rain = 0
KBR1 091205Z 33002KT M06/M08 A303 RMK A01 T10591080  RH  085%=      5-min Rain = 0
KBR1 091206Z 33002KT M06/M08 A303 RMK A01 T10571078  RH  085%=      5-min Rain = 0
KBR1 091207Z 33001KT M06/M08 A303 RMK A01 T10551077  RH  085%=      5-min Rain = 0
KBR1 091208Z 33001KT M05/M08 A303 RMK A01 T10531076  RH  084%=      5-min Rain = 0
KBR1 091209Z 33001KT M05/M08 A303 RMK A01 T10521076  RH  083%=      5-min Rain = 0
KBR1 091210Z 33001KT M05/M08 A303 RMK A01 T10511076  RH  082%=      5-min Rain = 0
KBR1 091211Z 31001KT M05/M08 A303 RMK A01 T10501076  RH  082%=      5-min Rain = 0
KBR1 091212Z 30001KT M05/M08 A303 RMK A01 T10481075  RH  082%=      5-min Rain = 0
KBR1 091213Z 29001KT M05/M08 A303 RMK A01 T10471075  RH  081%=      5-min Rain = 0
KBR1 091214Z 31001KT M05/M07 A303 RMK A01 T10461074  RH  081%=      5-min Rain = 0
KBR1 091215Z 32002KT M05/M08 A303 RMK A01 T10451075  RH  080%=      5-min Rain = 0
KBR1 091216Z 33003KT M05/M08 A303 RMK A01 T10451076  RH  079%=      5-min Rain = 0
KBR1 091217Z 33004KT M05/M08 A3031 RMK A01 T10491082  RH  078%=      5-min Rain = 0
KBR1 091218Z 32004KT M06/M09 A3031 RMK A01 T10551089  RH  077%=      5-min Rain = 0
KBR1 091219Z 32004KT M06/M09 A3031 RMK A01 T10601090  RH  079%=      5-min Rain = 0
KBR1 091220Z 31004KT M06/M09 A3031 RMK A01 T10621087  RH  083%=      5-min Rain = 0
KBR1 091221Z 30004KT M06/M08 A3031 RMK A01 T10611084  RH  084%=      5-min Rain = 0
KBR1 091222Z 30003KT M06/M08 A3031 RMK A01 T10601082  RH  084%=      5-min Rain = 0
KBR1 091223Z 30003KT M06/M08 A3031 RMK A01 T10581078  RH  085%=      5-min Rain = 0
KBR1 091224Z 30003KT M05/M08 A303 RMK A01 T10541075  RH  085%=      5-min Rain = 0
KBR1 091225Z 30003KT M05/M07 A303 RMK A01 T10511074  RH  084%=      5-min Rain = 0
KBR1 091226Z 31003KT M05/M08 A3031 RMK A01 T10501076  RH  082%=      5-min Rain = 0
KBR1 091227Z 32003KT M05/M08 A3031 RMK A01 T10531082  RH  080%=      5-min Rain = 0
KBR1 091228Z 32003KT M06/M08 A3031 RMK A01 T10561083  RH  081%=      5-min Rain = 0
KBR1 091229Z 32003KT M06/M09 A3031 RMK A01 T10591086  RH  081%=      5-min Rain = 0
KBR1 091230Z 31003KT M06/M09 A3031 RMK A01 T10611085  RH  083%=      5-min Rain = 0
KBR1 091231Z 31003KT M06/M08 A3031 RMK A01 T10601083  RH  084%=      5-min Rain = 0
KBR1 091232Z 31003KT M06/M08 A3031 RMK A01 T10591080  RH  085%=      5-min Rain = 0
KBR1 091233Z 31003KT M06/M08 A3031 RMK A01 T10571078  RH  085%=      5-min Rain = 0
KBR1 091234Z 31003KT M06/M08 A3031 RMK A01 T10551077  RH  085%=      5-min Rain = 0
KBR1 091235Z 31003KT M05/M08 A3031 RMK A01 T10541077  RH  084%=      5-min Rain = 0
KBR1 091236Z 31003KT M05/M08 A3031 RMK A01 T10531078  RH  083%=      5-min Rain = 0
KBR1 091237Z 32004KT M05/M08 A3031 RMK A01 T10531077  RH  083%=      5-min Rain = 0
KBR1 091238Z 34003KT M05/M08 A3031 RMK A01 T10531078  RH  082%=      5-min Rain = 0
KBR1 091239Z 35003KT M05/M08 A3031 RMK A01 T10541080  RH  082%=      5-min Rain = 0
KBR1 091240Z 36003KT M05/M08 A3031 RMK A01 T10541079  RH  083%=      5-min Rain = 0
KBR1 091241Z 35002KT M05/M08 A3031 RMK A01 T10531077  RH  083%=      5-min Rain = 0
KBR1 091242Z 35002KT M05/M08 A3031 RMK A01 T10521076  RH  084%=      5-min Rain = 0
KBR1 091243Z 34002KT M05/M08 A3031 RMK A01 T10521075  RH  084%=      5-min Rain = 0
KBR1 091244Z 34001KT M05/M07 A3031 RMK A01 T10501074  RH  084%=      5-min Rain = 0
KBR1 091245Z 33001KT M05/M07 A3031 RMK A01 T10501073  RH  084%=      5-min Rain = 0
KBR1 091246Z 31000KT M05/M07 A3031 RMK A01 T10491072  RH  084%=      5-min Rain = 0
KBR1 091247Z 00000KT M05/M07 A3031 RMK A01 T10491072  RH  084%=      5-min Rain = 0
KBR1 091248Z 00000KT M05/M07 A3031 RMK A01 T10481072  RH  084%=      5-min Rain = 0
KBR1 091249Z 00000KT M05/M07 A3031 RMK A01 T10481072  RH  083%=      5-min Rain = 0
KBR1 091250Z 00000KT M05/M07 A3031 RMK A01 T10481072  RH  083%=      5-min Rain = 0
KBR1 091251Z 32001KT M05/M07 A3031 RMK A01 T10481072  RH  083%=      5-min Rain = 0
KBR1 091252Z 34002KT M05/M07 A3031 RMK A01 T10471071  RH  083%=      5-min Rain = 0
KBR1 091253Z 02002KT M05/M07 A3031 RMK A01 T10461070  RH  083%=      5-min Rain = 0
KBR1 091254Z 02002KT M04/M07 A3031 RMK A01 T10441069  RH  083%=      5-min Rain = 0
KBR1 091255Z 02002KT M04/M07 A3031 RMK A01 T10431073  RH  080%=      5-min Rain = 0
KBR1 091256Z 00002KT M05/M08 A3031 RMK A01 T10491081  RH  078%=      5-min Rain = 0
KBR1 091257Z 34002KT M05/M08 A3031 RMK A01 T10511079  RH  081%=      5-min Rain = 0
KBR1 091258Z 34002KT M05/M08 A3031 RMK A01 T10511075  RH  083%=      5-min Rain = 0
KBR1 091259Z 35002KT M05/M07 A3031 RMK A01 T10491074  RH  083%=      5-min Rain = 0
KBR1 091300Z 00002KT M05/M08 A3031 RMK A01 T10491075  RH  082%=      5-min Rain = 0
KBR1 091301Z 01003KT M05/M08 A3032 RMK A01 T10491076  RH  082%=      5-min Rain = 0
KBR1 091302Z 00003KT M05/M08 A3032 RMK A01 T10501077  RH  081%=      5-min Rain = 0
KBR1 091303Z 01003KT M05/M08 A3032 RMK A01 T10511078  RH  082%=      5-min Rain = 0
KBR1 091304Z 00003KT M05/M08 A3032 RMK A01 T10511076  RH  083%=      5-min Rain = 0
KBR1 091305Z 01003KT M05/M08 A3032 RMK A01 T10511075  RH  083%=      5-min Rain = 0
KBR1 091306Z 01003KT M05/M07 A3032 RMK A01 T10501074  RH  083%=      5-min Rain = 0
KBR1 091307Z 01003KT M05/M07 A3032 RMK A01 T10491074  RH  083%=      5-min Rain = 0
KBR1 091308Z 01003KT M05/M08 A3032 RMK A01 T10501075  RH  082%=      5-min Rain = 0
KBR1 091309Z 01003KT M05/M08 A3032 RMK A01 T10511076  RH  082%=      5-min Rain = 0
KBR1 091310Z 01004KT M05/M08 A3032 RMK A01 T10521077  RH  082%=      5-min Rain = 0
KBR1 091311Z 02003KT M05/M08 A3032 RMK A01 T10541080  RH  082%=      5-min Rain = 0
KBR1 091312Z 02003KT M06/M08 A3032 RMK A01 T10551081  RH  082%=      5-min Rain = 0
KBR1 091313Z 02004KT M06/M08 A3032 RMK A01 T10561080  RH  083%=      5-min Rain = 0
KBR1 091314Z 01003KT M06/M08 A3032 RMK A01 T10561078  RH  084%=      5-min Rain = 0
KBR1 091315Z 00002KT M06/M08 A3032 RMK A01 T10561079  RH  084%=      5-min Rain = 0
KBR1 091316Z 02002KT M06/M08 A3032 RMK A01 T10561078  RH  085%=      5-min Rain = 0
KBR1 091317Z 01003KT M06/M08 A3032 RMK A01 T10551076  RH  085%=      5-min Rain = 0
KBR1 091318Z 00005KT M06/M08 A3032 RMK A01 T10551076  RH  085%=      5-min Rain = 0
KBR1 091319Z 01005KT M05/M08 A3032 RMK A01 T10531075  RH  085%=      5-min Rain = 0
KBR1 091320Z 00005KT M05/M08 A3032 RMK A01 T10531076  RH  084%=      5-min Rain = 0
KBR1 091321Z 36005KT M05/M08 A3032 RMK A01 T10541078  RH  083%=      5-min Rain = 0
KBR1 091322Z 35007KT M06/M08 A3032 RMK A01 T10561080  RH  083%=      5-min Rain = 0
KBR1 091323Z 35008KT M06/M08 A3032 RMK A01 T10581083  RH  083%=      5-min Rain = 0
KBR1 091324Z 35008KT M06/M08 A3032 RMK A01 T10601084  RH  083%=      5-min Rain = 0
KBR1 091325Z 00008KT M06/M08 A3032 RMK A01 T10621084  RH  084%=      5-min Rain = 0
KBR1 091326Z 00007KT M06/M08 A3032 RMK A01 T10631084  RH  085%=      5-min Rain = 0
KBR1 091327Z 01006KT M06/M08 A3032 RMK A01 T10631084  RH  085%=      5-min Rain = 0
KBR1 091328Z 01006KT M06/M09 A3032 RMK A01 T10641085  RH  085%=      5-min Rain = 0
KBR1 091329Z 01006KT M06/M08 A3032 RMK A01 T10641084  RH  086%=      5-min Rain = 0
KBR1 091330Z 01006KT M06/M08 A3032 RMK A01 T10641083  RH  086%=      5-min Rain = 0
KBR1 091331Z 00006KT M06/M08 A3032 RMK A01 T10641082  RH  087%=      5-min Rain = 0
KBR1 091332Z 01006KT M06/M08 A3032 RMK A01 T10621080  RH  087%=      5-min Rain = 0
KBR1 091333Z 00006KT M06/M08 A3033 RMK A01 T10611079  RH  087%=      5-min Rain = 0
KBR1 091334Z 00006KT M06/M08 A3033 RMK A01 T10601079  RH  086%=      5-min Rain = 0
KBR1 091335Z 01006KT M06/M08 A3033 RMK A01 T10591079  RH  086%=      5-min Rain = 0
KBR1 091336Z 00007KT M06/M08 A3033 RMK A01 T10591079  RH  086%=      5-min Rain = 0
KBR1 091337Z 00007KT M06/M08 A3033 RMK A01 T10591078  RH  086%=      5-min Rain = 0
KBR1 091338Z 00008KT M06/M08 A3033 RMK A01 T10581078  RH  086%=      5-min Rain = 0
KBR1 091339Z 00008KT M06/M08 A3033 RMK A01 T10571077  RH  086%=      5-min Rain = 0
KBR1 091340Z 00008KT M06/M08 A3033 RMK A01 T10561076  RH  086%=      5-min Rain = 0
KBR1 091341Z 00009KT M06/M08 A3033 RMK A01 T10561076  RH  086%=      5-min Rain = 0
KBR1 091342Z 00009KT M06/M08 A3033 RMK A01 T10551076  RH  085%=      5-min Rain = 0
KBR1 091343Z 00009KT M05/M08 A3033 RMK A01 T10541076  RH  085%=      5-min Rain = 0
KBR1 091344Z 01008KT M05/M08 A3033 RMK A01 T10541076  RH  085%=      5-min Rain = 0
KBR1 091345Z 01008KT M05/M08 A3033 RMK A01 T10541076  RH  084%=      5-min Rain = 0
KBR1 091346Z 01008KT M05/M08 A3034 RMK A01 T10541076  RH  084%=      5-min Rain = 0
KBR1 091347Z 01008KT M06/M08 A3034 RMK A01 T10551077  RH  084%=      5-min Rain = 0
KBR1 091348Z 01009KT M06/M08 A3034 RMK A01 T10551077  RH  084%=      5-min Rain = 0
KBR1 091349Z 01009KT M06/M08 A3034 RMK A01 T10551077  RH  085%=      5-min Rain = 0
KBR1 091350Z 01009KT M06/M08 A3034 RMK A01 T10551076  RH  085%=      5-min Rain = 0
KBR1 091351Z 01009KT M05/M08 A3034 RMK A01 T10541075  RH  085%=      5-min Rain = 0
KBR1 091352Z 01009KT M05/M07 A3034 RMK A01 T10531074  RH  085%=      5-min Rain = 0
KBR1 091353Z 01008KT M05/M07 A3034 RMK A01 T10521074  RH  085%=      5-min Rain = 0
KBR1 091354Z 01008KT M05/M07 A3034 RMK A01 T10511073  RH  084%=      5-min Rain = 0
KBR1 091355Z 02007KT M05/M07 A3034 RMK A01 T10501073  RH  084%=      5-min Rain = 0
KBR1 091356Z 02006KT M05/M07 A3034 RMK A01 T10511073  RH  084%=      5-min Rain = 0
KBR1 091357Z 02006KT M05/M07 A3034 RMK A01 T10511074  RH  084%=      5-min Rain = 0
KBR1 091358Z 02006KT M05/M07 A3034 RMK A01 T10521074  RH  084%=      5-min Rain = 0
KBR1 091359Z 03005KT M05/M07 A3034 RMK A01 T10521074  RH  085%=      5-min Rain = 0
KBR1 091400Z 03006KT M05/M07 A3034 RMK A01 T10521074  RH  085%=      5-min Rain = 0
KBR1 091401Z 03006KT M05/M07 A3034 RMK A01 T10521074  RH  085%=      5-min Rain = 0
KBR1 091402Z 03005KT M05/M07 A3034 RMK A01 T10521074  RH  085%=      5-min Rain = 0
KBR1 091403Z 03005KT M05/M07 A3034 RMK A01 T10521074  RH  085%=      5-min Rain = 0
KBR1 091404Z 03004KT M05/M07 A3034 RMK A01 T10521073  RH  085%=      5-min Rain = 0
KBR1 091405Z 03004KT M05/M07 A3034 RMK A01 T10511073  RH  085%=      5-min Rain = 0
KBR1 091406Z 03004KT M05/M07 A3034 RMK A01 T10511073  RH  084%=      5-min Rain = 0
KBR1 091407Z 03004KT M05/M07 A3034 RMK A01 T10511073  RH  084%=      5-min Rain = 0
KBR1 091408Z 03004KT M05/M07 A3034 RMK A01 T10511073  RH  084%=      5-min Rain = 0
KBR1 091409Z 03004KT M05/M07 A3034 RMK A01 T10501073  RH  084%=      5-min Rain = 0
KBR1 091410Z 03004KT M05/M07 A3034 RMK A01 T10491072  RH  084%=      5-min Rain = 0
KBR1 091411Z 02004KT M05/M07 A3034 RMK A01 T10491072  RH  084%=      5-min Rain = 0
KBR1 091412Z 03004KT M05/M07 A3034 RMK A01 T10481071  RH  084%=      5-min Rain = 0
KBR1 091413Z 03004KT M05/M07 A3034 RMK A01 T10481071  RH  084%=      5-min Rain = 0
KBR1 091414Z 03003KT M05/M07 A3034 RMK A01 T10471070  RH  084%=      5-min Rain = 0
KBR1 091415Z 02004KT M05/M07 A3034 RMK A01 T10471070  RH  084%=      5-min Rain = 0
KBR1 091416Z 02004KT M05/M07 A3034 RMK A01 T10471070  RH  083%=      5-min Rain = 0
KBR1 091417Z 03003KT M05/M07 A3034 RMK A01 T10461070  RH  083%=      5-min Rain = 0
KBR1 091418Z 03003KT M05/M07 A3034 RMK A01 T10451069  RH  083%=      5-min Rain = 0
KBR1 091419Z 03003KT M05/M07 A3034 RMK A01 T10451069  RH  083%=      5-min Rain = 0
KBR1 091420Z 02004KT M04/M07 A3034 RMK A01 T10441069  RH  083%=      5-min Rain = 0
KBR1 091421Z 02004KT M04/M07 A3034 RMK A01 T10441068  RH  083%=      5-min Rain = 0
KBR1 091422Z 03004KT M04/M07 A3034 RMK A01 T10431068  RH  083%=      5-min Rain = 0
KBR1 091423Z 03004KT M04/M07 A3034 RMK A01 T10421067  RH  083%=      5-min Rain = 0
KBR1 091424Z 03005KT M04/M07 A3034 RMK A01 T10411066  RH  083%=      5-min Rain = 0
KBR1 091425Z 02005KT M04/M07 A3034 RMK A01 T10401066  RH  082%=      5-min Rain = 0
KBR1 091426Z 03006KT M04/M07 A3034 RMK A01 T10401066  RH  082%=      5-min Rain = 0
KBR1 091427Z 03004KT M04/M07 A3034 RMK A01 T10401066  RH  082%=      5-min Rain = 0
KBR1 091428Z 04005KT M04/M07 A3034 RMK A01 T10401065  RH  082%=      5-min Rain = 0
KBR1 091429Z 03005KT M04/M07 A3034 RMK A01 T10391065  RH  083%=      5-min Rain = 0
KBR1 091430Z 02005KT M04/M06 A3034 RMK A01 T10381064  RH  082%=      5-min Rain = 0
KBR1 091431Z 02005KT M04/M06 A3035 RMK A01 T10371064  RH  082%=      5-min Rain = 0
KBR1 091432Z 02006KT M04/M06 A3035 RMK A01 T10371063  RH  082%=      5-min Rain = 0
KBR1 091433Z 02005KT M04/M06 A3035 RMK A01 T10361063  RH  082%=      5-min Rain = 0
KBR1 091434Z 02004KT M04/M06 A3035 RMK A01 T10351062  RH  081%=      5-min Rain = 0
KBR1 091435Z 01004KT M03/M06 A3035 RMK A01 T10341062  RH  081%=      5-min Rain = 0
KBR1 091436Z 02005KT M03/M06 A3035 RMK A01 T10331061  RH  081%=      5-min Rain = 0
KBR1 091437Z 02004KT M03/M06 A3035 RMK A01 T10321060  RH  081%=      5-min Rain = 0
KBR1 091438Z 02004KT M03/M06 A3035 RMK A01 T10311060  RH  080%=      5-min Rain = 0
KBR1 091439Z 02004KT M03/M06 A3035 RMK A01 T10301060  RH  080%=      5-min Rain = 0
KBR1 091440Z 01004KT M03/M06 A3035 RMK A01 T10291059  RH  080%=      5-min Rain = 0
KBR1 091441Z 02005KT M03/M06 A3035 RMK A01 T10281058  RH  080%=      5-min Rain = 0
KBR1 091442Z 02005KT M03/M06 A3035 RMK A01 T10271057  RH  080%=      5-min Rain = 0
KBR1 091443Z 02005KT M03/M06 A3035 RMK A01 T10251057  RH  079%=      5-min Rain = 0
KBR1 091444Z 02005KT M02/M06 A3035 RMK A01 T10241056  RH  079%=      5-min Rain = 0
KBR1 091445Z 01005KT M02/M06 A3035 RMK A01 T10231055  RH  078%=      5-min Rain = 0
KBR1 091446Z 01005KT M02/M06 A3035 RMK A01 T10221055  RH  078%=      5-min Rain = 0
KBR1 091447Z 01006KT M02/M05 A3035 RMK A01 T10211053  RH  078%=      5-min Rain = 0
KBR1 091448Z 01006KT M02/M05 A3035 RMK A01 T10201053  RH  078%=      5-min Rain = 0
KBR1 091449Z 01006KT M02/M05 A3035 RMK A01 T10191053  RH  078%=      5-min Rain = 0
KBR1 091450Z 01006KT M02/M05 A3035 RMK A01 T10181052  RH  078%=      5-min Rain = 0
KBR1 091451Z 01006KT M02/M05 A3035 RMK A01 T10171051  RH  078%=      5-min Rain = 0
KBR1 091452Z 01006KT M02/M05 A3035 RMK A01 T10161051  RH  077%=      5-min Rain = 0
KBR1 091453Z 01006KT M01/M05 A3035 RMK A01 T10141051  RH  076%=      5-min Rain = 0
KBR1 091454Z 01006KT M01/M05 A3035 RMK A01 T10131050  RH  076%=      5-min Rain = 0
KBR1 091455Z 01006KT M01/M05 A3035 RMK A01 T10121050  RH  075%=      5-min Rain = 0
KBR1 091456Z 01006KT M01/M05 A3035 RMK A01 T10111050  RH  075%=      5-min Rain = 0
KBR1 091457Z 01007KT M01/M05 A3035 RMK A01 T10101050  RH  074%=      5-min Rain = 0
KBR1 091458Z 01007KT M01/M05 A3035 RMK A01 T10091050  RH  074%=      5-min Rain = 0
KBR1 091459Z 01007KT M01/M05 A3035 RMK A01 T10081050  RH  073%=      5-min Rain = 0
KBR1 091500Z 01007KT M01/M05 A3035 RMK A01 T10071050  RH  073%=      5-min Rain = 0
KBR1 091501Z 01007KT M01/M05 A3035 RMK A01 T10061051  RH  072%=      5-min Rain = 0
KBR1 091502Z 01007KT M01/M05 A3035 RMK A01 T10061050  RH  072%=      5-min Rain = 0
KBR1 091503Z 01006KT M01/M05 A3035 RMK A01 T10051050  RH  072%=      5-min Rain = 0
KBR1 091504Z 01007KT M01/M05 A3035 RMK A01 T10051049  RH  072%=      5-min Rain = 0
KBR1 091505Z 01007KT M00/M05 A3035 RMK A01 T10041048  RH  072%=      5-min Rain = 0
KBR1 091506Z 02008KT M00/M05 A3035 RMK A01 T10031048  RH  072%=      5-min Rain = 0
KBR1 091507Z 01007KT M00/M05 A3035 RMK A01 T10021048  RH  071%=      5-min Rain = 0
KBR1 091508Z 01007KT M00/M05 A3035 RMK A01 T10011046  RH  072%=      5-min Rain = 0
KBR1 091509Z 01009KT 00/05 A3035 RMK A01 T00000-46  RH  071%=      5-min Rain = 0
KBR1 091510Z 01008KT 00/M05 A3035 RMK A01 T00011048  RH  070%=      5-min Rain = 0
KBR1 091511Z 01009KT 00/M05 A3035 RMK A01 T00011047  RH  070%=      5-min Rain = 0
KBR1 091512Z 01008KT 00/M05 A3035 RMK A01 T00021048  RH  069%=      5-min Rain = 0
KBR1 091513Z 01008KT 00/M05 A3035 RMK A01 T00031045  RH  070%=      5-min Rain = 0
KBR1 091514Z 01009KT 00/M05 A3035 RMK A01 T00041046  RH  069%=      5-min Rain = 0
KBR1 091515Z 01009KT 00/M05 A3035 RMK A01 T00041046  RH  069%=      5-min Rain = 0
KBR1 091516Z 01009KT 01/M05 A3035 RMK A01 T00051047  RH  068%=      5-min Rain = 0
KBR1 091517Z 01009KT 01/M05 A3035 RMK A01 T00061045  RH  069%=      5-min Rain = 0
KBR1 091518Z 01009KT 01/M05 A3035 RMK A01 T00071048  RH  067%=      5-min Rain = 0
KBR1 091519Z 01008KT 01/M05 A3035 RMK A01 T00071047  RH  067%=      5-min Rain = 0
KBR1 091520Z 02007KT 01/M05 A3035 RMK A01 T00081046  RH  067%=      5-min Rain = 0
KBR1 091521Z 01007KT 01/M05 A3035 RMK A01 T00091046  RH  067%=      5-min Rain = 0
KBR1 091522Z 02008KT 01/M05 A3035 RMK A01 T00091046  RH  066%=      5-min Rain = 0
KBR1 091523Z 01006KT 01/M05 A3035 RMK A01 T00091047  RH  066%=      5-min Rain = 0
KBR1 091524Z 01007KT 01/M05 A3035 RMK A01 T00101047  RH  066%=      5-min Rain = 0
KBR1 091525Z 02006KT 01/M05 A3035 RMK A01 T00111047  RH  066%=      5-min Rain = 0
KBR1 091526Z 03007KT 01/M05 A3035 RMK A01 T00111046  RH  066%=      5-min Rain = 0
KBR1 091527Z 04006KT 01/M05 A3035 RMK A01 T00121048  RH  064%=      5-min Rain = 0
KBR1 091528Z 04006KT 01/M05 A3035 RMK A01 T00121048  RH  064%=      5-min Rain = 0
KBR1 091529Z 03005KT 01/M05 A3035 RMK A01 T00131045  RH  065%=      5-min Rain = 0
KBR1 091530Z 03005KT 01/M04 A3035 RMK A01 T00141042  RH  066%=      5-min Rain = 0
KBR1 091531Z 03005KT 02/M04 A3035 RMK A01 T00161040  RH  066%=      5-min Rain = 0
KBR1 091532Z 02006KT 02/M04 A3035 RMK A01 T00181042  RH  064%=      5-min Rain = 0
KBR1 091533Z 01006KT 02/M04 A3035 RMK A01 T00181044  RH  064%=      5-min Rain = 0
KBR1 091534Z 01007KT 02/M04 A3035 RMK A01 T00181043  RH  064%=      5-min Rain = 0
KBR1 091535Z 01007KT 02/M05 A3035 RMK A01 T00181045  RH  063%=      5-min Rain = 0
KBR1 091536Z 01007KT 02/M05 A3035 RMK A01 T00181045  RH  063%=      5-min Rain = 0
KBR1 091537Z 01006KT 02/M05 A3035 RMK A01 T00181046  RH  062%=      5-min Rain = 0
KBR1 091538Z 02006KT 02/M05 A3035 RMK A01 T00191045  RH  063%=      5-min Rain = 0
KBR1 091539Z 01006KT 02/M05 A3036 RMK A01 T00201045  RH  062%=      5-min Rain = 0
KBR1 091540Z 02008KT 02/M04 A3036 RMK A01 T00211044  RH  062%=      5-min Rain = 0
KBR1 091541Z 01008KT 02/M04 A3036 RMK A01 T00221042  RH  063%=      5-min Rain = 0
KBR1 091542Z 01008KT 02/M04 A3036 RMK A01 T00221044  RH  061%=      5-min Rain = 0
KBR1 091543Z 01008KT 02/M05 A3036 RMK A01 T00231045  RH  061%=      5-min Rain = 0
KBR1 091544Z 01007KT 02/M04 A3036 RMK A01 T00231043  RH  062%=      5-min Rain = 0
KBR1 091545Z 01010KT 02/M04 A3036 RMK A01 T00241043  RH  061%=      5-min Rain = 0
KBR1 091546Z 01009KT 02/M04 A3036 RMK A01 T00241043  RH  061%=      5-min Rain = 0
KBR1 091547Z 01009KT 03/M04 A3036 RMK A01 T00251044  RH  060%=      5-min Rain = 0
KBR1 091548Z 01008KT 03/M04 A3036 RMK A01 T00261042  RH  061%=      5-min Rain = 0
KBR1 091549Z 02008KT 03/M04 A3036 RMK A01 T00271043  RH  060%=      5-min Rain = 0
KBR1 091550Z 02008KT 03/M04 A3036 RMK A01 T00281044  RH  059%=      5-min Rain = 0
KBR1 091551Z 02008KT 03/M04 A3036 RMK A01 T00281042  RH  060%=      5-min Rain = 0
KBR1 091552Z 02007KT 03/M04 A3036 RMK A01 T00291042  RH  060%=      5-min Rain = 0
KBR1 091553Z 01008KT 03/M04 A3036 RMK A01 T00301041  RH  060%=      5-min Rain = 0
KBR1 091554Z 02007KT 03/M04 A3036 RMK A01 T00311042  RH  059%=      5-min Rain = 0
KBR1 091555Z 02007KT 03/M04 A3036 RMK A01 T00321040  RH  059%=      5-min Rain = 0
KBR1 091556Z 03008KT 03/M04 A3036 RMK A01 T00331040  RH  059%=      5-min Rain = 0
KBR1 091557Z 03008KT 03/M04 A3036 RMK A01 T00341041  RH  058%=      5-min Rain = 0
KBR1 091558Z 03007KT 04/M04 A3036 RMK A01 T00351041  RH  058%=      5-min Rain = 0
KBR1 091559Z 02008KT 04/M04 A3036 RMK A01 T00351043  RH  057%=      5-min Rain = 0
KBR1 091600Z 02008KT 04/M04 A3036 RMK A01 T00361043  RH  056%=      5-min Rain = 0
KBR1 091601Z 03007KT 04/M04 A3036 RMK A01 T00361042  RH  056%=      5-min Rain = 0
KBR1 091602Z 04007KT 04/M04 A3036 RMK A01 T00371042  RH  056%=      5-min Rain = 0
KBR1 091603Z 04007KT 04/M04 A3036 RMK A01 T00381043  RH  055%=      5-min Rain = 0
KBR1 091604Z 04006KT 04/M04 A3036 RMK A01 T00391044  RH  055%=      5-min Rain = 0
KBR1 091605Z 03007KT 04/M04 A3037 RMK A01 T00391042  RH  055%=      5-min Rain = 0
KBR1 091606Z 03006KT 04/M04 A3037 RMK A01 T00401044  RH  054%=      5-min Rain = 0
KBR1 091607Z 02006KT 04/M04 A3037 RMK A01 T00401044  RH  054%=      5-min Rain = 0
KBR1 091608Z 04006KT 04/M05 A3037 RMK A01 T00401045  RH  054%=      5-min Rain = 0
KBR1 091609Z 05007KT 04/M04 A3037 RMK A01 T00401044  RH  054%=      5-min Rain = 0
KBR1 091610Z 03007KT 04/M05 A3037 RMK A01 T00401045  RH  054%=      5-min Rain = 0
KBR1 091611Z 03007KT 04/M05 A3037 RMK A01 T00411045  RH  054%=      5-min Rain = 0
KBR1 091612Z 02007KT 04/M04 A3037 RMK A01 T00421044  RH  053%=      5-min Rain = 0
KBR1 091613Z 03007KT 04/M04 A3037 RMK A01 T00431044  RH  053%=      5-min Rain = 0
KBR1 091614Z 04007KT 04/M04 A3037 RMK A01 T00441044  RH  053%=      5-min Rain = 0
KBR1 091615Z 04008KT 05/M04 A3037 RMK A01 T00451044  RH  052%=      5-min Rain = 0
KBR1 091616Z 04007KT 05/M05 A3037 RMK A01 T00451045  RH  052%=      5-min Rain = 0
KBR1 091617Z 03007KT 05/M04 A3037 RMK A01 T00461043  RH  052%=      5-min Rain = 0
KBR1 091618Z 02008KT 05/M04 A3037 RMK A01 T00471044  RH  052%=      5-min Rain = 0
KBR1 091619Z 03007KT 05/M05 A3037 RMK A01 T00461045  RH  052%=      5-min Rain = 0
KBR1 091620Z 04007KT 05/M04 A3037 RMK A01 T00461043  RH  052%=      5-min Rain = 0
KBR1 091621Z 03008KT 05/M04 A3037 RMK A01 T00471043  RH  052%=      5-min Rain = 0
KBR1 091622Z 04008KT 05/M04 A3037 RMK A01 T00471044  RH  052%=      5-min Rain = 0
KBR1 091623Z 03007KT 05/M04 A3037 RMK A01 T00471044  RH  052%=      5-min Rain = 0
KBR1 091624Z 02006KT 05/M04 A3037 RMK A01 T00471043  RH  052%=      5-min Rain = 0
KBR1 091625Z 04006KT 05/M04 A3037 RMK A01 T00471044  RH  052%=      5-min Rain = 0
KBR1 091626Z 04007KT 05/M04 A3037 RMK A01 T00481043  RH  052%=      5-min Rain = 0
KBR1 091627Z 04007KT 05/M05 A3037 RMK A01 T00491045  RH  051%=      5-min Rain = 0
KBR1 091628Z 04008KT 05/M05 A3037 RMK A01 T00501046  RH  050%=      5-min Rain = 0
KBR1 091629Z 05008KT 05/M05 A3037 RMK A01 T00501047  RH  050%=      5-min Rain = 0
KBR1 091630Z 05007KT 05/M05 A3037 RMK A01 T00501047  RH  049%=      5-min Rain = 0
KBR1 091631Z 05008KT 05/M05 A3037 RMK A01 T00501048  RH  049%=      5-min Rain = 0
KBR1 091632Z 05008KT 05/M05 A3037 RMK A01 T00511048  RH  049%=      5-min Rain = 0
KBR1 091633Z 06007KT 05/M05 A3037 RMK A01 T00511047  RH  049%=      5-min Rain = 0
KBR1 091634Z 05009KT 05/M05 A3037 RMK A01 T00521047  RH  049%=      5-min Rain = 0
KBR1 091635Z 03007KT 05/M05 A3037 RMK A01 T00541046  RH  048%=      5-min Rain = 0
KBR1 091636Z 04006KT 05/M05 A3037 RMK A01 T00541048  RH  048%=      5-min Rain = 0
KBR1 091637Z 06007KT 05/M05 A3037 RMK A01 T00531049  RH  048%=      5-min Rain = 0
KBR1 091638Z 07008KT 05/M05 A3037 RMK A01 T00531049  RH  048%=      5-min Rain = 0
KBR1 091639Z 07008KT 06/M05 A3037 RMK A01 T00551048  RH  048%=      5-min Rain = 0
KBR1 091640Z 06007KT 06/M05 A3037 RMK A01 T00561049  RH  047%=      5-min Rain = 0
KBR1 091641Z 04007KT 06/M05 A3037 RMK A01 T00571047  RH  047%=      5-min Rain = 0
KBR1 091642Z 04006KT 06/M05 A3037 RMK A01 T00571050  RH  046%=      5-min Rain = 0
KBR1 091643Z 04008KT 06/M05 A3037 RMK A01 T00551049  RH  047%=      5-min Rain = 0
KBR1 091644Z 03006KT 06/M05 A3037 RMK A01 T00551049  RH  047%=      5-min Rain = 0
KBR1 091645Z 04007KT 06/M05 A3037 RMK A01 T00561047  RH  047%=      5-min Rain = 0
KBR1 091646Z 03006KT 06/M05 A3037 RMK A01 T00581048  RH  047%=      5-min Rain = 0
KBR1 091647Z 03007KT 06/M05 A3037 RMK A01 T00581047  RH  047%=      5-min Rain = 0
KBR1 091648Z 03008KT 06/M05 A3037 RMK A01 T00571048  RH  047%=      5-min Rain = 0
KBR1 091649Z 02005KT 06/M05 A3037 RMK A01 T00581048  RH  047%=      5-min Rain = 0
KBR1 091650Z 04006KT 06/M05 A3037 RMK A01 T00591047  RH  047%=      5-min Rain = 0
KBR1 091651Z 05005KT 06/M05 A3037 RMK A01 T00591048  RH  046%=      5-min Rain = 0
KBR1 091652Z 05006KT 06/M05 A3037 RMK A01 T00591048  RH  046%=      5-min Rain = 0
KBR1 091653Z 06007KT 06/M05 A3037 RMK A01 T00611046  RH  046%=      5-min Rain = 0
KBR1 091654Z 03007KT 06/M05 A3037 RMK A01 T00621045  RH  046%=      5-min Rain = 0
KBR1 091655Z 02006KT 06/M05 A3037 RMK A01 T00631047  RH  045%=      5-min Rain = 0
KBR1 091656Z 03006KT 06/M05 A3037 RMK A01 T00631048  RH  045%=      5-min Rain = 0
KBR1 091657Z 06007KT 06/M05 A3037 RMK A01 T00611049  RH  045%=      5-min Rain = 0
KBR1 091658Z 05006KT 06/M05 A3037 RMK A01 T00611047  RH  046%=      5-min Rain = 0
KBR1 091659Z 03008KT 06/M05 A3037 RMK A01 T00631047  RH  045%=      5-min Rain = 0
KBR1 091700Z 06007KT 06/M05 A3037 RMK A01 T00631048  RH  045%=      5-min Rain = 0
KBR1 091701Z 05008KT 06/M05 A3037 RMK A01 T00631048  RH  045%=      5-min Rain = 0
KBR1 091702Z 04008KT 06/M05 A3037 RMK A01 T00631049  RH  045%=      5-min Rain = 0
KBR1 091703Z 03008KT 06/M05 A3037 RMK A01 T00621050  RH  044%=      5-min Rain = 0
KBR1 091704Z 03007KT 06/M05 A3037 RMK A01 T00621049  RH  045%=      5-min Rain = 0
KBR1 091705Z 03009KT 06/M05 A3037 RMK A01 T00621047  RH  046%=      5-min Rain = 0
KBR1 091706Z 03008KT 06/M05 A3037 RMK A01 T00631048  RH  045%=      5-min Rain = 0
KBR1 091707Z 03005KT 06/M05 A3037 RMK A01 T00611050  RH  045%=      5-min Rain = 0
KBR1 091708Z 01005KT 06/M05 A3037 RMK A01 T00601050  RH  045%=      5-min Rain = 0
KBR1 091709Z 03006KT 06/M05 A3037 RMK A01 T00611048  RH  046%=      5-min Rain = 0
KBR1 091710Z 02006KT 06/M05 A3037 RMK A01 T00641046  RH  046%=      5-min Rain = 0
KBR1 091711Z 02006KT 07/M05 A3037 RMK A01 T00651048  RH  044%=      5-min Rain = 0
KBR1 091712Z 02006KT 07/M05 A3037 RMK A01 T00651048  RH  044%=      5-min Rain = 0
KBR1 091713Z 02006KT 07/M05 A3037 RMK A01 T00651047  RH  045%=      5-min Rain = 0
KBR1 091714Z 02006KT 07/M05 A3037 RMK A01 T00651047  RH  045%=      5-min Rain = 0
KBR1 091715Z 03006KT 07/M05 A3037 RMK A01 T00671045  RH  045%=      5-min Rain = 0
KBR1 091716Z 03008KT 07/M05 A3037 RMK A01 T00691045  RH  044%=      5-min Rain = 0
KBR1 091717Z 04006KT 07/M05 A3037 RMK A01 T00681048  RH  044%=      5-min Rain = 0
KBR1 091718Z 06007KT 07/M05 A3037 RMK A01 T00651049  RH  044%=      5-min Rain = 0
KBR1 091719Z 06007KT 07/M05 A3037 RMK A01 T00651049  RH  044%=      5-min Rain = 0
KBR1 091720Z 06007KT 07/M05 A3037 RMK A01 T00661048  RH  044%=      5-min Rain = 0
KBR1 091721Z 05008KT 07/M05 A3037 RMK A01 T00651048  RH  044%=      5-min Rain = 0
KBR1 091722Z 06007KT 07/M05 A3037 RMK A01 T00661048  RH  044%=      5-min Rain = 0
KBR1 091723Z 05005KT 07/M05 A3037 RMK A01 T00651048  RH  044%=      5-min Rain = 0
KBR1 091724Z 05006KT 07/M05 A3037 RMK A01 T00661048  RH  044%=      5-min Rain = 0
KBR1 091725Z 04007KT 07/M05 A3037 RMK A01 T00691046  RH  044%=      5-min Rain = 0
KBR1 091726Z 04007KT 07/M05 A3037 RMK A01 T00701049  RH  042%=      5-min Rain = 0
KBR1 091727Z 05007KT 07/M05 A3037 RMK A01 T00711052  RH  041%=      5-min Rain = 0
KBR1 091728Z 05006KT 07/M06 A3037 RMK A01 T00691055  RH  041%=      5-min Rain = 0
KBR1 091729Z 04005KT 07/M05 A3037 RMK A01 T00681052  RH  042%=      5-min Rain = 0
KBR1 091730Z 04008KT 07/M05 A3037 RMK A01 T00681048  RH  043%=      5-min Rain = 0
KBR1 091731Z 05009KT 07/M05 A3037 RMK A01 T00711049  RH  042%=      5-min Rain = 0
KBR1 091732Z 06007KT 07/M06 A3037 RMK A01 T00731055  RH  040%=      5-min Rain = 0
KBR1 091733Z 06007KT 07/M06 A3037 RMK A01 T00731055  RH  040%=      5-min Rain = 0
KBR1 091734Z 06007KT 07/M06 A3037 RMK A01 T00731055  RH  040%=      5-min Rain = 0
KBR1 091735Z 06006KT 07/M06 A3037 RMK A01 T00711057  RH  040%=      5-min Rain = 0
KBR1 091736Z 06005KT 07/M06 A3037 RMK A01 T00711055  RH  040%=      5-min Rain = 0
KBR1 091737Z 06006KT 08/M05 A3037 RMK A01 T00751051  RH  041%=      5-min Rain = 0
KBR1 091738Z 06007KT 08/M05 A3037 RMK A01 T00751053  RH  040%=      5-min Rain = 0
KBR1 091739Z 08007KT 07/M05 A3037 RMK A01 T00731054  RH  040%=      5-min Rain = 0
KBR1 091740Z 08006KT 07/M06 A3037 RMK A01 T00721056  RH  040%=      5-min Rain = 0
KBR1 091741Z 04004KT 07/M05 A3037 RMK A01 T00701054  RH  041%=      5-min Rain = 0
KBR1 091742Z 03006KT 07/M05 A3037 RMK A01 T00731049  RH  042%=      5-min Rain = 0
KBR1 091743Z 04006KT 07/M05 A3036 RMK A01 T00741051  RH  041%=      5-min Rain = 0
KBR1 091744Z 06008KT 07/M05 A3036 RMK A01 T00741052  RH  040%=      5-min Rain = 0
KBR1 091745Z 06007KT 07/M05 A3036 RMK A01 T00741053  RH  040%=      5-min Rain = 0
KBR1 091746Z 06007KT 08/M05 A3037 RMK A01 T00761054  RH  039%=      5-min Rain = 0
KBR1 091747Z 06006KT 08/M06 A3036 RMK A01 T00761058  RH  038%=      5-min Rain = 0
KBR1 091748Z 06009KT 08/M06 A3036 RMK A01 T00771062  RH  037%=      5-min Rain = 0
KBR1 091749Z 06006KT 08/M06 A3036 RMK A01 T00771062  RH  036%=      5-min Rain = 0
KBR1 091750Z 07007KT 08/M06 A3036 RMK A01 T00781063  RH  036%=      5-min Rain = 0
KBR1 091751Z 04006KT 08/M06 A3036 RMK A01 T00781062  RH  037%=      5-min Rain = 0
KBR1 091752Z 03005KT 08/M06 A3036 RMK A01 T00781063  RH  036%=      5-min Rain = 0
KBR1 091753Z 04005KT 08/M06 A3036 RMK A01 T00761061  RH  037%=      5-min Rain = 0
KBR1 091754Z 04003KT 08/M06 A3036 RMK A01 T00761060  RH  038%=      5-min Rain = 0
KBR1 091755Z 08005KT 08/M06 A3036 RMK A01 T00761059  RH  038%=      5-min Rain = 0
KBR1 091756Z 05004KT 08/M06 A3036 RMK A01 T00781057  RH  038%=      5-min Rain = 0
KBR1 091757Z 03006KT 08/M06 A3036 RMK A01 T00781060  RH  037%=      5-min Rain = 0
KBR1 091758Z 05008KT 08/M06 A3036 RMK A01 T00791064  RH  036%=      5-min Rain = 0
KBR1 091759Z 05007KT 08/M07 A3036 RMK A01 T00811065  RH  035%=      5-min Rain = 0
KBR1 091800Z 04007KT 08/M07 A3036 RMK A01 T00831066  RH  034%=      5-min Rain = 0
KBR1 091801Z 05007KT 08/M07 A3036 RMK A01 T00821068  RH  034%=      5-min Rain = 0
KBR1 091802Z 03008KT 08/M07 A3036 RMK A01 T00811067  RH  034%=      5-min Rain = 0
KBR1 091803Z 03008KT 08/M07 A3036 RMK A01 T00811065  RH  035%=      5-min Rain = 0
KBR1 091804Z 01008KT 08/M07 A3036 RMK A01 T00801067  RH  035%=      5-min Rain = 0
KBR1 091805Z 01007KT 08/M07 A3036 RMK A01 T00781069  RH  035%=      5-min Rain = 0
KBR1 091806Z 36006KT 08/M07 A3036 RMK A01 T00771067  RH  035%=      5-min Rain = 0
KBR1 091807Z 02005KT 08/M07 A3036 RMK A01 T00771065  RH  036%=      5-min Rain = 0
KBR1 091808Z 03005KT 08/M06 A3036 RMK A01 T00781064  RH  036%=      5-min Rain = 0
KBR1 091809Z 06009KT 08/M07 A3036 RMK A01 T00791068  RH  035%=      5-min Rain = 0
KBR1 091810Z 06011KT 08/M07 A3036 RMK A01 T00811071  RH  033%=      5-min Rain = 0
KBR1 091811Z 05009KT 08/M08 A3036 RMK A01 T00821078  RH  031%=      5-min Rain = 0
KBR1 091812Z 06009KT 08/M07 A3036 RMK A01 T00831074  RH  032%=      5-min Rain = 0
KBR1 091813Z 07006KT 08/M07 A3036 RMK A01 T00821070  RH  033%=      5-min Rain = 0
KBR1 091814Z 05005KT 08/M07 A3036 RMK A01 T00821068  RH  034%=      5-min Rain = 0
KBR1 091815Z 03006KT 08/M07 A3036 RMK A01 T00821072  RH  033%=      5-min Rain = 0
KBR1 091816Z 04003KT 08/M07 A3036 RMK A01 T00821074  RH  032%=      5-min Rain = 0
KBR1 091817Z 04003KT 08/M07 A3035 RMK A01 T00821074  RH  032%=      5-min Rain = 0
KBR1 091818Z 03007KT 08/M07 A3035 RMK A01 T00841069  RH  033%=      5-min Rain = 0
KBR1 091819Z 05007KT 09/M07 A3035 RMK A01 T00881065  RH  033%=      5-min Rain = 0
KBR1 091820Z 04008KT 09/M07 A3035 RMK A01 T00921067  RH  032%=      5-min Rain = 0
KBR1 091821Z 03008KT 09/M08 A3035 RMK A01 T00941076  RH  029%=      5-min Rain = 0
KBR1 091822Z 03007KT 09/M09 A3035 RMK A01 T00941086  RH  027%=      5-min Rain = 0
KBR1 091823Z 04007KT 09/M09 A3035 RMK A01 T00911094  RH  026%=      5-min Rain = 0
KBR1 091824Z 05008KT 09/M09 A3035 RMK A01 T00881087  RH  028%=      5-min Rain = 0
KBR1 091825Z 05007KT 09/M09 A3035 RMK A01 T00881085  RH  029%=      5-min Rain = 0
KBR1 091826Z 06006KT 09/M08 A3035 RMK A01 T00881081  RH  029%=      5-min Rain = 0
KBR1 091827Z 07007KT 09/M08 A3035 RMK A01 T00891080  RH  029%=      5-min Rain = 0
KBR1 091828Z 06006KT 09/M08 A3035 RMK A01 T00861082  RH  030%=      5-min Rain = 0
KBR1 091829Z 04009KT 09/M08 A3034 RMK A01 T00861083  RH  029%=      5-min Rain = 0
KBR1 091830Z 04009KT 09/M09 A3034 RMK A01 T00851091  RH  028%=      5-min Rain = 0
KBR1 091831Z 05008KT 08/M10 A3034 RMK A01 T00841095  RH  027%=      5-min Rain = 0
KBR1 091832Z 06008KT 08/M09 A3034 RMK A01 T00841090  RH  028%=      5-min Rain = 0
KBR1 091833Z 05006KT 08/M09 A3034 RMK A01 T00841090  RH  028%=      5-min Rain = 0
KBR1 091834Z 06005KT 09/M09 A3034 RMK A01 T00851091  RH  028%=      5-min Rain = 0
KBR1 091835Z 07006KT 09/M09 A3034 RMK A01 T00861086  RH  029%=      5-min Rain = 0
KBR1 091836Z 07005KT 09/M08 A3034 RMK A01 T00881082  RH  029%=      5-min Rain = 0
KBR1 091837Z 02006KT 09/M08 A3034 RMK A01 T00901081  RH  029%=      5-min Rain = 0
KBR1 091838Z 01007KT 09/M09 A3034 RMK A01 T00911088  RH  027%=      5-min Rain = 0
KBR1 091839Z 01008KT 09/M09 A3034 RMK A01 T00911085  RH  028%=      5-min Rain = 0
KBR1 091840Z 00006KT 09/M08 A3034 RMK A01 T00891083  RH  029%=      5-min Rain = 0
KBR1 091841Z 00007KT 09/M08 A3034 RMK A01 T00881079  RH  030%=      5-min Rain = 0
KBR1 091842Z 03005KT 09/M08 A3034 RMK A01 T00881079  RH  030%=      5-min Rain = 0
KBR1 091843Z 04009KT 09/M08 A3034 RMK A01 T00891079  RH  030%=      5-min Rain = 0
KBR1 091844Z 05008KT 09/M09 A3034 RMK A01 T00911089  RH  027%=      5-min Rain = 0
KBR1 091845Z 06008KT 09/M10 A3034 RMK A01 T00901096  RH  026%=      5-min Rain = 0
KBR1 091846Z 08008KT 09/M10 A3034 RMK A01 T00911097  RH  025%=      5-min Rain = 0
KBR1 091847Z 08007KT 09/M10 A3034 RMK A01 T00901099  RH  025%=      5-min Rain = 0
KBR1 091848Z 04006KT 09/M10 A3034 RMK A01 T00901096  RH  026%=      5-min Rain = 0
KBR1 091849Z 06007KT 09/M09 A3034 RMK A01 T00901092  RH  027%=      5-min Rain = 0
KBR1 091850Z 07006KT 09/M09 A3034 RMK A01 T00901090  RH  027%=      5-min Rain = 0
KBR1 091851Z 08005KT 09/M09 A3034 RMK A01 T00901091  RH  027%=      5-min Rain = 0
KBR1 091852Z 04006KT 09/M09 A3034 RMK A01 T00891092  RH  027%=      5-min Rain = 0
KBR1 091853Z 02006KT 09/M10 A3034 RMK A01 T00901104  RH  024%=      5-min Rain = 0
KBR1 091854Z 03008KT 09/M11 A3033 RMK A01 T00911108  RH  023%=      5-min Rain = 0
KBR1 091855Z 03004KT 09/M11 A3033 RMK A01 T00911111  RH  023%=      5-min Rain = 0
KBR1 091856Z 04006KT 09/M11 A3033 RMK A01 T00911111  RH  023%=      5-min Rain = 0
KBR1 091857Z 05008KT 09/M11 A3033 RMK A01 T00911107  RH  024%=      5-min Rain = 0
KBR1 091858Z 04009KT 09/M11 A3033 RMK A01 T00911105  RH  024%=      5-min Rain = 0
KBR1 091859Z 06008KT 09/M10 A3033 RMK A01 T00931102  RH  024%=      5-min Rain = 0
KBR1 091900Z 07007KT 09/M10 A3033 RMK A01 T00941100  RH  024%=      5-min Rain = 0
KBR1 091901Z 07007KT 10/M10 A3033 RMK A01 T00951097  RH  025%=      5-min Rain = 0
KBR1 091902Z 07009KT 10/M10 A3033 RMK A01 T00951096  RH  025%=      5-min Rain = 0
KBR1 091903Z 06006KT 09/M10 A3033 RMK A01 T00941098  RH  025%=      5-min Rain = 0
KBR1 091904Z 07005KT 09/M10 A3033 RMK A01 T00921099  RH  025%=      5-min Rain = 0
KBR1 091905Z 08006KT 09/M10 A3033 RMK A01 T00921097  RH  025%=      5-min Rain = 0
KBR1 091906Z 04006KT 09/M10 A3033 RMK A01 T00931095  RH  025%=      5-min Rain = 0
KBR1 091907Z 04008KT 09/M10 A3033 RMK A01 T00941100  RH  024%=      5-min Rain = 0
KBR1 091908Z 03007KT 09/M10 A3033 RMK A01 T00941101  RH  024%=      5-min Rain = 0
KBR1 091909Z 01007KT 09/M10 A3033 RMK A01 T00941100  RH  024%=      5-min Rain = 0
KBR1 091910Z 02007KT 09/M10 A3033 RMK A01 T00941101  RH  024%=      5-min Rain = 0
KBR1 091911Z 04008KT 10/M10 A3032 RMK A01 T00951099  RH  024%=      5-min Rain = 0
KBR1 091912Z 05006KT 10/M10 A3032 RMK A01 T00951104  RH  023%=      5-min Rain = 0
KBR1 091913Z 04005KT 10/M10 A3032 RMK A01 T00951101  RH  024%=      5-min Rain = 0
KBR1 091914Z 03004KT 09/M10 A3032 RMK A01 T00941101  RH  024%=      5-min Rain = 0
KBR1 091915Z 03005KT 10/M10 A3032 RMK A01 T00951099  RH  024%=      5-min Rain = 0
KBR1 091916Z 03007KT 10/M10 A3032 RMK A01 T00971098  RH  024%=      5-min Rain = 0
KBR1 091917Z 03006KT 10/M10 A3032 RMK A01 T00961100  RH  024%=      5-min Rain = 0
KBR1 091918Z 02006KT 10/M10 A3032 RMK A01 T00961100  RH  024%=      5-min Rain = 0
KBR1 091919Z 06008KT 10/M10 A3032 RMK A01 T00981096  RH  024%=      5-min Rain = 0
KBR1 091920Z 04007KT 10/M10 A3032 RMK A01 T01001096  RH  024%=      5-min Rain = 0
KBR1 091921Z 04007KT 10/M10 A3032 RMK A01 T00981100  RH  024%=      5-min Rain = 0
KBR1 091922Z 03007KT 10/M10 A3032 RMK A01 T00971099  RH  024%=      5-min Rain = 0
KBR1 091923Z 04007KT 10/M10 A3032 RMK A01 T00981095  RH  025%=      5-min Rain = 0
KBR1 091924Z 04006KT 10/M10 A3032 RMK A01 T01011095  RH  024%=      5-min Rain = 0
KBR1 091925Z 04004KT 10/M10 A3032 RMK A01 T01001096  RH  024%=      5-min Rain = 0
KBR1 091926Z 02004KT 10/M10 A3032 RMK A01 T00991096  RH  024%=      5-min Rain = 0
KBR1 091927Z 01003KT 10/M10 A3032 RMK A01 T00981096  RH  025%=      5-min Rain = 0
KBR1 091928Z 07005KT 10/M09 A3031 RMK A01 T00971094  RH  025%=      5-min Rain = 0
KBR1 091929Z 10007KT 10/M09 A3031 RMK A01 T00971093  RH  025%=      5-min Rain = 0
KBR1 091930Z 10006KT 10/M09 A3031 RMK A01 T00981093  RH  025%=      5-min Rain = 0
KBR1 091931Z 10006KT 10/M10 A3031 RMK A01 T00971095  RH  025%=      5-min Rain = 0
KBR1 091932Z 10008KT 10/M10 A3031 RMK A01 T00961095  RH  025%=      5-min Rain = 0
KBR1 091933Z 10006KT 10/M10 A3031 RMK A01 T00961096  RH  025%=      5-min Rain = 0
KBR1 091934Z 09003KT 10/M10 A3031 RMK A01 T00951095  RH  025%=      5-min Rain = 0
KBR1 091935Z 10003KT 10/M10 A3031 RMK A01 T00951095  RH  025%=      5-min Rain = 0
KBR1 091936Z 11006KT 10/M10 A3031 RMK A01 T00961095  RH  025%=      5-min Rain = 0
KBR1 091937Z 11005KT 10/M09 A3031 RMK A01 T00961094  RH  025%=      5-min Rain = 0
KBR1 091938Z 05004KT 10/M09 A3031 RMK A01 T00991092  RH  025%=      5-min Rain = 0
KBR1 091939Z 07004KT 10/M09 A3031 RMK A01 T01001092  RH  025%=      5-min Rain = 0
KBR1 091940Z 06006KT 10/M09 A3031 RMK A01 T01021091  RH  025%=      5-min Rain = 0
KBR1 091941Z 05005KT 10/M09 A3031 RMK A01 T01011094  RH  024%=      5-min Rain = 0
KBR1 091942Z 06006KT 10/M09 A3031 RMK A01 T00991093  RH  025%=      5-min Rain = 0
KBR1 091943Z 08006KT 10/M09 A3031 RMK A01 T01001092  RH  025%=      5-min Rain = 0
KBR1 091944Z 08008KT 10/M09 A3031 RMK A01 T01021091  RH  025%=      5-min Rain = 0
KBR1 091945Z 08007KT 10/M10 A3031 RMK A01 T01011095  RH  024%=      5-min Rain = 0
KBR1 091946Z 06007KT 10/M09 A3031 RMK A01 T00991093  RH  025%=      5-min Rain = 0
KBR1 091947Z 06007KT 10/M09 A3031 RMK A01 T01001093  RH  025%=      5-min Rain = 0
KBR1 091948Z 06009KT 10/M09 A3031 RMK A01 T01001092  RH  025%=      5-min Rain = 0
KBR1 091949Z 07005KT 10/M10 A3031 RMK A01 T01001095  RH  024%=      5-min Rain = 0
KBR1 091950Z 07003KT 10/M10 A3031 RMK A01 T00981096  RH  024%=      5-min Rain = 0
KBR1 091951Z 07002KT 10/M10 A3031 RMK A01 T00981096  RH  025%=      5-min Rain = 0
KBR1 091952Z 05002KT 10/M10 A3031 RMK A01 T00971095  RH  025%=      5-min Rain = 0
KBR1 091953Z 04006KT 10/M09 A3031 RMK A01 T00991092  RH  025%=      5-min Rain = 0
KBR1 091954Z 04006KT 10/M09 A3031 RMK A01 T01011093  RH  024%=      5-min Rain = 0
KBR1 091955Z 02006KT 10/M09 A3031 RMK A01 T01011093  RH  025%=      5-min Rain = 0
KBR1 091956Z 02005KT 10/M09 A3031 RMK A01 T00991092  RH  025%=      5-min Rain = 0
KBR1 091957Z 04005KT 10/M09 A3031 RMK A01 T01001091  RH  025%=      5-min Rain = 0
KBR1 091958Z 04005KT 10/M09 A3031 RMK A01 T01011090  RH  025%=      5-min Rain = 0
KBR1 091959Z 05003KT 10/M09 A3031 RMK A01 T01041089  RH  025%=      5-min Rain = 0
KBR1 092000Z 06007KT 11/M09 A3031 RMK A01 T01051091  RH  024%=      5-min Rain = 0
KBR1 092001Z 05006KT 11/M09 A3031 RMK A01 T01051091  RH  024%=      5-min Rain = 0
KBR1 092002Z 06003KT 10/M09 A3031 RMK A01 T01031093  RH  024%=      5-min Rain = 0
KBR1 092003Z 07003G8KT 10/M09 A3031 RMK A01 T01021094  RH  024%=      5-min Rain = 0
KBR1 092004Z 04007KT 10/M09 A3031 RMK A01 T01021092  RH  025%=      5-min Rain = 0
KBR1 092005Z 36005KT 10/M09 A3031 RMK A01 T01041089  RH  025%=      5-min Rain = 0
KBR1 092006Z 04007KT 11/M09 A3031 RMK A01 T01051088  RH  025%=      5-min Rain = 0
KBR1 092007Z 04010KT 11/M09 A3031 RMK A01 T01051087  RH  025%=      5-min Rain = 0
KBR1 092008Z 05009KT 10/M09 A3031 RMK A01 T01031088  RH  025%=      5-min Rain = 0
KBR1 092009Z 05007KT 10/M09 A3031 RMK A01 T01021088  RH  025%=      5-min Rain = 0
KBR1 092010Z 03006KT 10/M09 A3031 RMK A01 T01001090  RH  025%=      5-min Rain = 0
KBR1 092011Z 02004KT 10/M09 A3031 RMK A01 T00981090  RH  026%=      5-min Rain = 0
KBR1 092012Z 02003KT 10/M09 A3031 RMK A01 T00981090  RH  026%=      5-min Rain = 0
KBR1 092013Z 04007KT 10/M09 A3031 RMK A01 T01001087  RH  026%=      5-min Rain = 0
KBR1 092014Z 04010KT 10/M09 A3031 RMK A01 T01021085  RH  026%=      5-min Rain = 0
KBR1 092015Z 03008KT 10/M09 A3031 RMK A01 T01021087  RH  026%=      5-min Rain = 0
KBR1 092016Z 03005KT 10/M09 A3031 RMK A01 T01011087  RH  026%=      5-min Rain = 0
KBR1 092017Z 02006KT 10/M09 A3031 RMK A01 T01001088  RH  026%=      5-min Rain = 0
KBR1 092018Z 02003KT 10/M09 A3031 RMK A01 T01001088  RH  026%=      5-min Rain = 0
KBR1 092019Z 06006KT 10/M09 A3031 RMK A01 T01011086  RH  026%=      5-min Rain = 0
KBR1 092020Z 07007KT 10/M09 A3031 RMK A01 T01011088  RH  026%=      5-min Rain = 0
KBR1 092021Z 04004KT 10/M09 A3031 RMK A01 T01021087  RH  026%=      5-min Rain = 0
KBR1 092022Z 04007KT 10/M08 A3031 RMK A01 T01041084  RH  026%=      5-min Rain = 0
KBR1 092023Z 02007KT 11/M08 A3031 RMK A01 T01081083  RH  025%=      5-min Rain = 0
KBR1 092024Z 02006KT 11/M09 A3031 RMK A01 T01081085  RH  025%=      5-min Rain = 0
KBR1 092025Z 01004KT 11/M09 A3031 RMK A01 T01071085  RH  025%=      5-min Rain = 0
KBR1 092026Z 04006KT 11/M09 A3031 RMK A01 T01071085  RH  025%=      5-min Rain = 0
KBR1 092027Z 06007KT 11/M09 A303 RMK A01 T01071086  RH  025%=      5-min Rain = 0
KBR1 092028Z 06006KT 11/M09 A303 RMK A01 T01051086  RH  025%=      5-min Rain = 0
KBR1 092029Z 07008KT 11/M08 A303 RMK A01 T01051084  RH  025%=      5-min Rain = 0
KBR1 092030Z 06006KT 11/M09 A303 RMK A01 T01051086  RH  025%=      5-min Rain = 0
KBR1 092031Z 05007KT 11/M09 A303 RMK A01 T01061085  RH  025%=      5-min Rain = 0
KBR1 092032Z 06008KT 11/M09 A303 RMK A01 T01051085  RH  025%=      5-min Rain = 0
KBR1 092033Z 07005KT 11/M09 A303 RMK A01 T01051086  RH  025%=      5-min Rain = 0
KBR1 092034Z 07004KT 10/M09 A303 RMK A01 T01031087  RH  025%=      5-min Rain = 0
KBR1 092035Z 07004KT 10/M09 A303 RMK A01 T01031085  RH  026%=      5-min Rain = 0
KBR1 092036Z 05003KT 11/M09 A303 RMK A01 T01051085  RH  026%=      5-min Rain = 0
KBR1 092037Z 07005KT 11/M08 A303 RMK A01 T01061083  RH  026%=      5-min Rain = 0
KBR1 092038Z 08004KT 11/M08 A303 RMK A01 T01081084  RH  025%=      5-min Rain = 0
KBR1 092039Z 09002KT 11/M09 A303 RMK A01 T01061086  RH  025%=      5-min Rain = 0
KBR1 092040Z 05004G9KT 11/M08 A303 RMK A01 T01071083  RH  025%=      5-min Rain = 0
KBR1 092041Z 06008KT 11/M08 A303 RMK A01 T01081083  RH  025%=      5-min Rain = 0
KBR1 092042Z 06007KT 11/M08 A303 RMK A01 T01091082  RH  025%=      5-min Rain = 0
KBR1 092043Z 05005KT 11/M08 A3031 RMK A01 T01071084  RH  025%=      5-min Rain = 0
KBR1 092044Z 03005KT 11/M08 A303 RMK A01 T01061083  RH  026%=      5-min Rain = 0
KBR1 092045Z 06006KT 11/M08 A303 RMK A01 T01061084  RH  026%=      5-min Rain = 0
KBR1 092046Z 03007KT 11/M08 A303 RMK A01 T01061083  RH  026%=      5-min Rain = 0
KBR1 092047Z 04008KT 11/M08 A303 RMK A01 T01071081  RH  026%=      5-min Rain = 0
KBR1 092048Z 03006KT 11/M08 A303 RMK A01 T01081082  RH  025%=      5-min Rain = 0
KBR1 092049Z 35006KT 11/M08 A303 RMK A01 T01071083  RH  025%=      5-min Rain = 0
KBR1 092050Z 34006KT 11/M08 A303 RMK A01 T01051084  RH  026%=      5-min Rain = 0
KBR1 092051Z 35003KT 10/M08 A303 RMK A01 T01041083  RH  026%=      5-min Rain = 0
KBR1 092052Z 07002KT 11/M08 A303 RMK A01 T01051082  RH  026%=      5-min Rain = 0
KBR1 092053Z 07003KT 11/M08 A303 RMK A01 T01071081  RH  026%=      5-min Rain = 0
KBR1 092054Z 09002KT 11/M08 A303 RMK A01 T01081082  RH  025%=      5-min Rain = 0
KBR1 092055Z 10005KT 11/M08 A303 RMK A01 T01091082  RH  025%=      5-min Rain = 0
KBR1 092056Z 09006KT 11/M08 A303 RMK A01 T01091082  RH  025%=      5-min Rain = 0
KBR1 092057Z 09007KT 11/M08 A303 RMK A01 T01081083  RH  025%=      5-min Rain = 0
KBR1 092058Z 09004KT 11/M08 A303 RMK A01 T01061084  RH  025%=      5-min Rain = 0
KBR1 092059Z 14002KT 11/M09 A303 RMK A01 T01051085  RH  026%=      5-min Rain = 0
KBR1 092100Z 15002KT 10/M08 A303 RMK A01 T01041084  RH  026%=      5-min Rain = 0
KBR1 092101Z 16001KT 11/M08 A303 RMK A01 T01061083  RH  026%=      5-min Rain = 0
KBR1 092102Z 10001KT 11/M08 A303 RMK A01 T01081083  RH  025%=      5-min Rain = 0
KBR1 092103Z 12002KT 11/M08 A303 RMK A01 T01091083  RH  025%=      5-min Rain = 0
KBR1 092104Z 13002KT 11/M08 A303 RMK A01 T01101081  RH  025%=      5-min Rain = 0
KBR1 092105Z 14002KT 11/M08 A303 RMK A01 T01121078  RH  026%=      5-min Rain = 0
KBR1 092106Z 15003KT 12/M08 A303 RMK A01 T01151079  RH  025%=      5-min Rain = 0
KBR1 092107Z 34001KT 12/M08 A303 RMK A01 T01151080  RH  025%=      5-min Rain = 0
KBR1 092108Z 36004KT 11/M08 A303 RMK A01 T01141081  RH  025%=      5-min Rain = 0
KBR1 092109Z 03007KT 11/M08 A303 RMK A01 T01121080  RH  025%=      5-min Rain = 0
KBR1 092110Z 05009KT 11/M08 A303 RMK A01 T01121079  RH  025%=      5-min Rain = 0
KBR1 092111Z 05009KT 11/M08 A303 RMK A01 T01121079  RH  025%=      5-min Rain = 0
KBR1 092112Z 03006KT 11/M08 A303 RMK A01 T01101081  RH  025%=      5-min Rain = 0
KBR1 092113Z 35005KT 11/M08 A303 RMK A01 T01081083  RH  025%=      5-min Rain = 0
KBR1 092114Z 33005KT 11/M08 A303 RMK A01 T01061083  RH  026%=      5-min Rain = 0
KBR1 092115Z 02008G15KT 11/M08 A303 RMK A01 T01061080  RH  026%=      5-min Rain = 0
KBR1 092116Z 09008G14KT 11/M08 A303 RMK A01 T01081081  RH  026%=      5-min Rain = 0
KBR1 092117Z 10007KT 11/M08 A303 RMK A01 T01071081  RH  026%=      5-min Rain = 0
KBR1 092118Z 11006KT 11/M08 A303 RMK A01 T01081081  RH  026%=      5-min Rain = 0
KBR1 092119Z 10006KT 11/M08 A303 RMK A01 T01081082  RH  026%=      5-min Rain = 0
KBR1 092120Z 11005KT 11/M08 A303 RMK A01 T01101080  RH  026%=      5-min Rain = 0
KBR1 092121Z 10006KT 11/M08 A303 RMK A01 T01091083  RH  025%=      5-min Rain = 0
KBR1 092122Z 09006KT 11/M08 A303 RMK A01 T01071083  RH  025%=      5-min Rain = 0
KBR1 092123Z 10005KT 11/M08 A303 RMK A01 T01051084  RH  026%=      5-min Rain = 0
KBR1 092124Z 09007KT 11/M08 A303 RMK A01 T01051084  RH  026%=      5-min Rain = 0
KBR1 092125Z 07008KT 11/M08 A303 RMK A01 T01051082  RH  026%=      5-min Rain = 0
KBR1 092126Z 06007KT 11/M08 A303 RMK A01 T01051083  RH  026%=      5-min Rain = 0
KBR1 092127Z 06006KT 11/M08 A303 RMK A01 T01061083  RH  026%=      5-min Rain = 0
KBR1 092128Z 05004KT 11/M08 A3029 RMK A01 T01061083  RH  026%=      5-min Rain = 0
KBR1 092129Z 04003KT 11/M09 A3029 RMK A01 T01051085  RH  026%=      5-min Rain = 0
KBR1 092130Z 05001KT 10/M08 A303 RMK A01 T01031084  RH  026%=      5-min Rain = 0
KBR1 092131Z 08004KT 10/M08 A303 RMK A01 T01031083  RH  026%=      5-min Rain = 0
KBR1 092132Z 08003KT 10/M08 A303 RMK A01 T01041083  RH  026%=      5-min Rain = 0
KBR1 092133Z 08006KT 10/M08 A303 RMK A01 T01041083  RH  026%=      5-min Rain = 0
KBR1 092134Z 09007KT 10/M08 A303 RMK A01 T01041082  RH  026%=      5-min Rain = 0
KBR1 092135Z 10007KT 10/M08 A303 RMK A01 T01041082  RH  026%=      5-min Rain = 0
KBR1 092136Z 10007KT 11/M08 A303 RMK A01 T01051083  RH  026%=      5-min Rain = 0
KBR1 092137Z 09006KT 10/M08 A303 RMK A01 T01041083  RH  026%=      5-min Rain = 0
KBR1 092138Z 07007KT 11/M08 A303 RMK A01 T01051082  RH  026%=      5-min Rain = 0
KBR1 092139Z 05003KT 11/M08 A303 RMK A01 T01061082  RH  026%=      5-min Rain = 0
KBR1 092140Z 05004KT 11/M08 A303 RMK A01 T01051084  RH  026%=      5-min Rain = 0
KBR1 092141Z 05004KT 11/M08 A303 RMK A01 T01051083  RH  026%=      5-min Rain = 0
KBR1 092142Z 03005KT 11/M08 A303 RMK A01 T01061083  RH  026%=      5-min Rain = 0
KBR1 092143Z 04005KT 11/M08 A303 RMK A01 T01061083  RH  026%=      5-min Rain = 0
KBR1 092144Z 06006KT 11/M08 A303 RMK A01 T01061083  RH  026%=      5-min Rain = 0
KBR1 092145Z 06005KT 11/M08 A303 RMK A01 T01061083  RH  026%=      5-min Rain = 0
KBR1 092146Z 07006KT 11/M08 A303 RMK A01 T01061083  RH  026%=      5-min Rain = 0
KBR1 092147Z 10008KT 11/M08 A303 RMK A01 T01061082  RH  026%=      5-min Rain = 0
KBR1 092148Z 09006KT 11/M09 A303 RMK A01 T01061086  RH  025%=      5-min Rain = 0
KBR1 092149Z 09005KT 11/M09 A303 RMK A01 T01051085  RH  025%=      5-min Rain = 0
KBR1 092150Z 12006KT 11/M09 A303 RMK A01 T01051086  RH  025%=      5-min Rain = 0
KBR1 092151Z 08009KT 11/M08 A3029 RMK A01 T01061084  RH  025%=      5-min Rain = 0
KBR1 092152Z 07010KT 11/M08 A303 RMK A01 T01091082  RH  025%=      5-min Rain = 0
KBR1 092153Z 04006KT 11/M08 A303 RMK A01 T01091082  RH  025%=      5-min Rain = 0
KBR1 092154Z 07007KT 11/M08 A303 RMK A01 T01101083  RH  025%=      5-min Rain = 0
KBR1 092155Z 06010KT 11/M08 A303 RMK A01 T01091084  RH  025%=      5-min Rain = 0
KBR1 092156Z 07010KT 11/M09 A303 RMK A01 T01071086  RH  025%=      5-min Rain = 0
KBR1 092157Z 06009KT 11/M09 A303 RMK A01 T01061085  RH  025%=      5-min Rain = 0
KBR1 092158Z 07009KT 11/M09 A303 RMK A01 T01061085  RH  025%=      5-min Rain = 0
KBR1 092159Z 06008KT 11/M09 A303 RMK A01 T01051086  RH  025%=      5-min Rain = 0
KBR1 092200Z 06009KT 11/M09 A303 RMK A01 T01051086  RH  025%=      5-min Rain = 0
KBR1 092201Z 05008KT 11/M09 A303 RMK A01 T01051086  RH  025%=      5-min Rain = 0
KBR1 092202Z 05008KT 11/M09 A303 RMK A01 T01051086  RH  025%=      5-min Rain = 0
KBR1 092203Z 05006KT 11/M09 A303 RMK A01 T01051088  RH  025%=      5-min Rain = 0
KBR1 092204Z 06008KT 10/M09 A303 RMK A01 T01041088  RH  025%=      5-min Rain = 0
KBR1 092205Z 07008KT 10/M09 A303 RMK A01 T01041087  RH  025%=      5-min Rain = 0
KBR1 092206Z 06005KT 10/M09 A303 RMK A01 T01041087  RH  025%=      5-min Rain = 0
KBR1 092207Z 05004KT 10/M09 A303 RMK A01 T01031087  RH  025%=      5-min Rain = 0
KBR1 092208Z 07004KT 10/M09 A303 RMK A01 T01041087  RH  025%=      5-min Rain = 0
KBR1 092209Z 08003KT 10/M09 A303 RMK A01 T01041088  RH  025%=      5-min Rain = 0
KBR1 092210Z 08006KT 11/M09 A303 RMK A01 T01051085  RH  025%=      5-min Rain = 0
KBR1 092211Z 06006KT 11/M09 A303 RMK A01 T01061086  RH  025%=      5-min Rain = 0
KBR1 092212Z 06008KT 11/M09 A303 RMK A01 T01061086  RH  025%=      5-min Rain = 0
KBR1 092213Z 07008KT 11/M09 A303 RMK A01 T01051087  RH  025%=      5-min Rain = 0
KBR1 092214Z 06009KT 11/M09 A303 RMK A01 T01051086  RH  025%=      5-min Rain = 0
KBR1 092215Z 07007KT 10/M09 A303 RMK A01 T01041088  RH  025%=      5-min Rain = 0
KBR1 092216Z 05006KT 10/M09 A303 RMK A01 T01031088  RH  025%=      5-min Rain = 0
KBR1 092217Z 06007KT 10/M09 A303 RMK A01 T01031088  RH  025%=      5-min Rain = 0
KBR1 092218Z 06006KT 10/M09 A303 RMK A01 T01031087  RH  025%=      5-min Rain = 0
KBR1 092219Z 06007KT 10/M09 A303 RMK A01 T01031086  RH  025%=      5-min Rain = 0
KBR1 092220Z 06008KT 10/M09 A303 RMK A01 T01031086  RH  025%=      5-min Rain = 0
KBR1 092221Z 06007KT 10/M09 A303 RMK A01 T01031087  RH  025%=      5-min Rain = 0
KBR1 092222Z 07007KT 10/M09 A303 RMK A01 T01031086  RH  026%=      5-min Rain = 0
KBR1 092223Z 07005KT 10/M09 A303 RMK A01 T01031086  RH  026%=      5-min Rain = 0
KBR1 092224Z 08006KT 10/M09 A303 RMK A01 T01031086  RH  026%=      5-min Rain = 0
KBR1 092225Z 09006KT 10/M09 A303 RMK A01 T01031086  RH  025%=      5-min Rain = 0
KBR1 092226Z 09005KT 10/M09 A303 RMK A01 T01031088  RH  025%=      5-min Rain = 0
KBR1 092227Z 06006KT 10/M09 A303 RMK A01 T01031087  RH  025%=      5-min Rain = 0
KBR1 092228Z 06007KT 10/M09 A303 RMK A01 T01021088  RH  025%=      5-min Rain = 0
KBR1 092229Z 07007KT 10/M09 A303 RMK A01 T01021087  RH  026%=      5-min Rain = 0
KBR1 092230Z 07007KT 10/M09 A303 RMK A01 T01021086  RH  026%=      5-min Rain = 0
KBR1 092231Z 06006KT 10/M09 A303 RMK A01 T01021088  RH  025%=      5-min Rain = 0
KBR1 092232Z 07008KT 10/M09 A303 RMK A01 T01011086  RH  026%=      5-min Rain = 0
KBR1 092233Z 07007KT 10/M09 A303 RMK A01 T01011086  RH  026%=      5-min Rain = 0
KBR1 092234Z 08008KT 10/M09 A303 RMK A01 T01011086  RH  026%=      5-min Rain = 0
KBR1 092235Z 06007KT 10/M09 A303 RMK A01 T01011085  RH  026%=      5-min Rain = 0
KBR1 092236Z 07008KT 10/M08 A303 RMK A01 T01011084  RH  026%=      5-min Rain = 0
KBR1 092237Z 07007KT 10/M08 A303 RMK A01 T01021084  RH  026%=      5-min Rain = 0
KBR1 092238Z 06008KT 10/M09 A303 RMK A01 T01011085  RH  026%=      5-min Rain = 0
KBR1 092239Z 05007KT 10/M08 A303 RMK A01 T01011084  RH  026%=      5-min Rain = 0
KBR1 092240Z 04007KT 10/M08 A303 RMK A01 T01001084  RH  026%=      5-min Rain = 0
KBR1 092241Z 04009KT 10/M08 A303 RMK A01 T01001084  RH  026%=      5-min Rain = 0
KBR1 092242Z 05011KT 10/M09 A303 RMK A01 T00991085  RH  026%=      5-min Rain = 0
KBR1 092243Z 06009KT 10/M09 A303 RMK A01 T00991085  RH  027%=      5-min Rain = 0
KBR1 092244Z 06009KT 10/M09 A3031 RMK A01 T00981085  RH  027%=      5-min Rain = 0
KBR1 092245Z 07007KT 10/M09 A3031 RMK A01 T00981086  RH  026%=      5-min Rain = 0
KBR1 092246Z 07006KT 10/M09 A3031 RMK A01 T00981086  RH  026%=      5-min Rain = 0
KBR1 092247Z 07005KT 10/M09 A3031 RMK A01 T00981085  RH  027%=      5-min Rain = 0
KBR1 092248Z 06005KT 10/M08 A3031 RMK A01 T00981084  RH  027%=      5-min Rain = 0
KBR1 092249Z 07008KT 10/M08 A3031 RMK A01 T00991083  RH  027%=      5-min Rain = 0
KBR1 092250Z 07009KT 10/M08 A3031 RMK A01 T00981084  RH  027%=      5-min Rain = 0
KBR1 092251Z 07008KT 10/M08 A3031 RMK A01 T00971084  RH  027%=      5-min Rain = 0
KBR1 092252Z 07009KT 10/M08 A3031 RMK A01 T00971083  RH  027%=      5-min Rain = 0
KBR1 092253Z 07009KT 10/M08 A3031 RMK A01 T00961083  RH  027%=      5-min Rain = 0
KBR1 092254Z 07008KT 10/M08 A3031 RMK A01 T00961083  RH  028%=      5-min Rain = 0
KBR1 092255Z 06009KT 10/M08 A3031 RMK A01 T00951082  RH  028%=      5-min Rain = 0
KBR1 092256Z 06008KT 10/M08 A3031 RMK A01 T00951081  RH  028%=      5-min Rain = 0
KBR1 092257Z 06007KT 10/M08 A3031 RMK A01 T00951079  RH  028%=      5-min Rain = 0
KBR1 092258Z 06008KT 09/M08 A3031 RMK A01 T00941078  RH  029%=      5-min Rain = 0
KBR1 092259Z 06009KT 09/M08 A3031 RMK A01 T00941077  RH  029%=      5-min Rain = 0
KBR1 092300Z 05008KT 09/M08 A3031 RMK A01 T00931077  RH  029%=      5-min Rain = 0
KBR1 092301Z 05007KT 09/M08 A3031 RMK A01 T00931076  RH  029%=      5-min Rain = 0
KBR1 092302Z 05007KT 09/M08 A3031 RMK A01 T00931076  RH  030%=      5-min Rain = 0
KBR1 092303Z 05007KT 09/M08 A3031 RMK A01 T00921076  RH  030%=      5-min Rain = 0
KBR1 092304Z 05007KT 09/M08 A3031 RMK A01 T00911076  RH  030%=      5-min Rain = 0
KBR1 092305Z 05007KT 09/M08 A3031 RMK A01 T00911075  RH  030%=      5-min Rain = 0
KBR1 092306Z 06007KT 09/M08 A3031 RMK A01 T00901075  RH  030%=      5-min Rain = 0
KBR1 092307Z 05008KT 09/M08 A3031 RMK A01 T00901075  RH  030%=      5-min Rain = 0
KBR1 092308Z 06007KT 09/M08 A3031 RMK A01 T00891075  RH  031%=      5-min Rain = 0
KBR1 092309Z 07007KT 09/M08 A3031 RMK A01 T00881075  RH  031%=      5-min Rain = 0
KBR1 092310Z 07007KT 09/M08 A3031 RMK A01 T00881075  RH  031%=      5-min Rain = 0
KBR1 092311Z 07007KT 09/M08 A3031 RMK A01 T00871075  RH  031%=      5-min Rain = 0
KBR1 092312Z 07007KT 09/M08 A3032 RMK A01 T00861076  RH  031%=      5-min Rain = 0
KBR1 092313Z 06007KT 09/M08 A3032 RMK A01 T00851076  RH  031%=      5-min Rain = 0
KBR1 092314Z 06007KT 08/M08 A3032 RMK A01 T00841076  RH  031%=      5-min Rain = 0
KBR1 092315Z 06007KT 08/M08 A3032 RMK A01 T00841075  RH  032%=      5-min Rain = 0
KBR1 092316Z 06007KT 08/M07 A3032 RMK A01 T00831074  RH  032%=      5-min Rain = 0
KBR1 092317Z 06007KT 08/M07 A3032 RMK A01 T00821074  RH  032%=      5-min Rain = 0
KBR1 092318Z 06007KT 08/M07 A3032 RMK A01 T00811074  RH  033%=      5-min Rain = 0
KBR1 092319Z 06007KT 08/M07 A3032 RMK A01 T00801073  RH  033%=      5-min Rain = 0
KBR1 092320Z 06007KT 08/M07 A3032 RMK A01 T00791074  RH  033%=      5-min Rain = 0
KBR1 092321Z 06007KT 08/M07 A3032 RMK A01 T00781073  RH  033%=      5-min Rain = 0
KBR1 092322Z 06007KT 08/M07 A3032 RMK A01 T00761073  RH  034%=      5-min Rain = 0
KBR1 092323Z 06007KT 08/M07 A3032 RMK A01 T00751073  RH  034%=      5-min Rain = 0
KBR1 092324Z 06007KT 07/M07 A3032 RMK A01 T00741073  RH  034%=      5-min Rain = 0
KBR1 092325Z 06007KT 07/M07 A3032 RMK A01 T00721073  RH  035%=      5-min Rain = 0
KBR1 092326Z 06008KT 07/M07 A3032 RMK A01 T00711074  RH  035%=      5-min Rain = 0
KBR1 092327Z 06007KT 07/M07 A3032 RMK A01 T00701073  RH  035%=      5-min Rain = 0
KBR1 092328Z 06008KT 07/M07 A3032 RMK A01 T00691074  RH  035%=      5-min Rain = 0
KBR1 092329Z 06008KT 07/M07 A3032 RMK A01 T00681073  RH  036%=      5-min Rain = 0
KBR1 092330Z 06008KT 07/M07 A3032 RMK A01 T00671074  RH  036%=      5-min Rain = 0
KBR1 092331Z 06008KT 07/M07 A3032 RMK A01 T00671073  RH  036%=      5-min Rain = 0
KBR1 092332Z 06008KT 07/M07 A3032 RMK A01 T00661073  RH  036%=      5-min Rain = 0
KBR1 092333Z 05008KT 07/M07 A3032 RMK A01 T00651073  RH  037%=      5-min Rain = 0
KBR1 092334Z 05008KT 06/M07 A3032 RMK A01 T00631074  RH  037%=      5-min Rain = 0
KBR1 092335Z 05007KT 06/M08 A3032 RMK A01 T00611075  RH  037%=      5-min Rain = 0
KBR1 092336Z 05008KT 06/M08 A3032 RMK A01 T00591075  RH  038%=      5-min Rain = 0
KBR1 092337Z 05008KT 06/M08 A3032 RMK A01 T00571075  RH  038%=      5-min Rain = 0
KBR1 092338Z 05008KT 06/M08 A3032 RMK A01 T00551076  RH  038%=      5-min Rain = 0
KBR1 092339Z 05008KT 05/M08 A3032 RMK A01 T00521076  RH  039%=      5-min Rain = 0
KBR1 092340Z 05008KT 05/M08 A3032 RMK A01 T00501076  RH  039%=      5-min Rain = 0
KBR1 092341Z 05007KT 05/M08 A3032 RMK A01 T00481077  RH  040%=      5-min Rain = 0
KBR1 092342Z 05007KT 05/M08 A3033 RMK A01 T00461077  RH  040%=      5-min Rain = 0
KBR1 092343Z 05007KT 04/M08 A3033 RMK A01 T00441078  RH  041%=      5-min Rain = 0
KBR1 092344Z 05007KT 04/M08 A3033 RMK A01 T00411078  RH  041%=      5-min Rain = 0
KBR1 092345Z 05007KT 04/M08 A3033 RMK A01 T00391079  RH  042%=      5-min Rain = 0
KBR1 092346Z 05007KT 04/M08 A3033 RMK A01 T00371080  RH  042%=      5-min Rain = 0
KBR1 092347Z 05007KT 03/M08 A3033 RMK A01 T00341081  RH  043%=      5-min Rain = 0
KBR1 092348Z 04008KT 03/M08 A3033 RMK A01 T00311081  RH  043%=      5-min Rain = 0
KBR1 092349Z 04008KT 03/M08 A3033 RMK A01 T00291082  RH  044%=      5-min Rain = 0
KBR1 092350Z 04008KT 03/M08 A3033 RMK A01 T00271082  RH  045%=      5-min Rain = 0
KBR1 092351Z 04009KT 03/M08 A3033 RMK A01 T00261082  RH  045%=      5-min Rain = 0
KBR1 092352Z 05009KT 03/M08 A3033 RMK A01 T00251082  RH  045%=      5-min Rain = 0
KBR1 092353Z 04009KT 02/M08 A3033 RMK A01 T00231082  RH  046%=      5-min Rain = 0
KBR1 092354Z 04009KT 02/M08 A3034 RMK A01 T00231082  RH  046%=      5-min Rain = 0
KBR1 092355Z 04009KT 02/M08 A3034 RMK A01 T00221082  RH  046%=      5-min Rain = 0
KBR1 092356Z 04009KT 02/M08 A3034 RMK A01 T00221082  RH  046%=      5-min Rain = 0
KBR1 092357Z 04009KT 02/M08 A3034 RMK A01 T00221082  RH  046%=      5-min Rain = 0
KBR1 092358Z 04009KT 02/M08 A3034 RMK A01 T00221081  RH  046%=      5-min Rain = 0
KBR1 092359Z 04009KT 02/M08 A3034 RMK A01 T00221081  RH  047%=      5-min Rain = 0
KBR1 100000Z 04008KT 02/M08 A3034 RMK A01 T00231080  RH  047%=      5-min Rain = 0
KBR1 100001Z 04008KT 02/M08 A3034 RMK A01 T00231080  RH  046%=      5-min Rain = 0
KBR1 100002Z 04008KT 02/M08 A3034 RMK A01 T00241080  RH  046%=      5-min Rain = 0
KBR1 100003Z 04008KT 02/M08 A3034 RMK A01 T00241080  RH  046%=      5-min Rain = 0
KBR1 100004Z 04008KT 02/M08 A3034 RMK A01 T00241080  RH  046%=      5-min Rain = 0
KBR1 100005Z 04008KT 02/M08 A3034 RMK A01 T00241080  RH  046%=      5-min Rain = 0
KBR1 100006Z 04008KT 02/M08 A3034 RMK A01 T00241080  RH  046%=      5-min Rain = 0
KBR1 100007Z 04008KT 02/M08 A3034 RMK A01 T00231080  RH  046%=      5-min Rain = 0
KBR1 100008Z 04008KT 02/M08 A3034 RMK A01 T00231080  RH  047%=      5-min Rain = 0
KBR1 100009Z 04008KT 02/M08 A3034 RMK A01 T00211080  RH  047%=      5-min Rain = 0
KBR1 100010Z 04008KT 02/M08 A3034 RMK A01 T00201081  RH  047%=      5-min Rain = 0
KBR1 100011Z 04008KT 02/M08 A3034 RMK A01 T00191081  RH  048%=      5-min Rain = 0
KBR1 100012Z 04008KT 02/M08 A3034 RMK A01 T00181081  RH  048%=      5-min Rain = 0
KBR1 100013Z 04008KT 02/M08 A3034 RMK A01 T00171081  RH  048%=      5-min Rain = 0
KBR1 100014Z 04008KT 02/M08 A3034 RMK A01 T00161081  RH  048%=      5-min Rain = 0
KBR1 100015Z 04009KT 02/M08 A3034 RMK A01 T00161082  RH  048%=      5-min Rain = 0
KBR1 100016Z 04009KT 02/M08 A3034 RMK A01 T00151082  RH  049%=      5-min Rain = 0
KBR1 100017Z 04009KT 01/M08 A3034 RMK A01 T00141082  RH  049%=      5-min Rain = 0
KBR1 100018Z 04009KT 01/M08 A3034 RMK A01 T00131082  RH  049%=      5-min Rain = 0
KBR1 100019Z 04009KT 01/M08 A3035 RMK A01 T00131082  RH  049%=      5-min Rain = 0
KBR1 100020Z 04009KT 01/M08 A3035 RMK A01 T00121082  RH  050%=      5-min Rain = 0
KBR1 100021Z 04009KT 01/M08 A3035 RMK A01 T00121081  RH  050%=      5-min Rain = 0
KBR1 100022Z 04009KT 01/M08 A3035 RMK A01 T00121080  RH  050%=      5-min Rain = 0
KBR1 100023Z 04009KT 01/M08 A3035 RMK A01 T00121080  RH  050%=      5-min Rain = 0
KBR1 100024Z 04009KT 01/M08 A3035 RMK A01 T00121080  RH  050%=      5-min Rain = 0
KBR1 100025Z 04009KT 01/M08 A3035 RMK A01 T00111080  RH  051%=      5-min Rain = 0
KBR1 100026Z 04009KT 01/M08 A3035 RMK A01 T00111080  RH  051%=      5-min Rain = 0
KBR1 100027Z 04009KT 01/M08 A3035 RMK A01 T00111080  RH  051%=      5-min Rain = 0
KBR1 100028Z 04009KT 01/M08 A3035 RMK A01 T00101080  RH  051%=      5-min Rain = 0
KBR1 100029Z 04009KT 01/M08 A3035 RMK A01 T00101080  RH  051%=      5-min Rain = 0
KBR1 100030Z 04009KT 01/M08 A3035 RMK A01 T00101080  RH  051%=      5-min Rain = 0
KBR1 100031Z 04009KT 01/M08 A3035 RMK A01 T00101080  RH  051%=      5-min Rain = 0
KBR1 100032Z 04008KT 01/M08 A3035 RMK A01 T00101080  RH  051%=      5-min Rain = 0
KBR1 100033Z 04008KT 01/M08 A3035 RMK A01 T00091080  RH  051%=      5-min Rain = 0
KBR1 100034Z 04008KT 01/M08 A3035 RMK A01 T00091080  RH  052%=      5-min Rain = 0
KBR1 100035Z 04008KT 01/M08 A3035 RMK A01 T00091080  RH  052%=      5-min Rain = 0
KBR1 100036Z 04008KT 01/M08 A3035 RMK A01 T00081080  RH  052%=      5-min Rain = 0
KBR1 100037Z 04009KT 01/M08 A3035 RMK A01 T00081080  RH  052%=      5-min Rain = 0
KBR1 100038Z 04009KT 01/M08 A3035 RMK A01 T00071080  RH  052%=      5-min Rain = 0
KBR1 100039Z 04009KT 01/M08 A3035 RMK A01 T00071080  RH  052%=      5-min Rain = 0
KBR1 100040Z 04009KT 01/M08 A3035 RMK A01 T00061080  RH  053%=      5-min Rain = 0
KBR1 100041Z 04009KT 01/M08 A3035 RMK A01 T00061080  RH  053%=      5-min Rain = 0
KBR1 100042Z 04009KT 01/M08 A3035 RMK A01 T00051080  RH  053%=      5-min Rain = 0
KBR1 100043Z 04009KT 01/M08 A3035 RMK A01 T00051079  RH  053%=      5-min Rain = 0
KBR1 100044Z 04009KT 01/M08 A3035 RMK A01 T00051079  RH  053%=      5-min Rain = 0
KBR1 100045Z 04009KT 01/M08 A3035 RMK A01 T00061079  RH  053%=      5-min Rain = 0
KBR1 100046Z 05008KT 01/M08 A3035 RMK A01 T00071078  RH  053%=      5-min Rain = 0
KBR1 100047Z 05008KT 01/M08 A3035 RMK A01 T00081077  RH  053%=      5-min Rain = 0
KBR1 100048Z 05008KT 01/M08 A3035 RMK A01 T00091077  RH  053%=      5-min Rain = 0
KBR1 100049Z 05008KT 01/M08 A3035 RMK A01 T00101077  RH  052%=      5-min Rain = 0
KBR1 100050Z 05008KT 01/M08 A3035 RMK A01 T00101077  RH  052%=      5-min Rain = 0
KBR1 100051Z 05008KT 01/M08 A3035 RMK A01 T00111077  RH  052%=      5-min Rain = 0
KBR1 100052Z 05008KT 01/M08 A3035 RMK A01 T00111077  RH  052%=      5-min Rain = 0
KBR1 100053Z 05008KT 01/M08 A3035 RMK A01 T00111077  RH  052%=      5-min Rain = 0
KBR1 100054Z 05008KT 01/M08 A3035 RMK A01 T00121077  RH  051%=      5-min Rain = 0
KBR1 100055Z 06008KT 01/M08 A3035 RMK A01 T00131077  RH  051%=      5-min Rain = 0
KBR1 100056Z 06007KT 01/M08 A3035 RMK A01 T00141076  RH  051%=      5-min Rain = 0
KBR1 100057Z 06007KT 02/M08 A3035 RMK A01 T00151076  RH  051%=      5-min Rain = 0
KBR1 100058Z 06007KT 02/M08 A3035 RMK A01 T00151077  RH  050%=      5-min Rain = 0
KBR1 100059Z 06007KT 02/M08 A3035 RMK A01 T00151077  RH  050%=      5-min Rain = 0
KBR1 100100Z 05007KT 01/M08 A3035 RMK A01 T00141078  RH  050%=      5-min Rain = 0
KBR1 100101Z 06007KT 01/M08 A3035 RMK A01 T00131079  RH  051%=      5-min Rain = 0
KBR1 100102Z 05007KT 01/M08 A3035 RMK A01 T00111079  RH  051%=      5-min Rain = 0
KBR1 100103Z 05007KT 01/M08 A3035 RMK A01 T00111079  RH  051%=      5-min Rain = 0
KBR1 100104Z 05007KT 01/M08 A3035 RMK A01 T00101079  RH  051%=      5-min Rain = 0
KBR1 100105Z 05007KT 01/M08 A3035 RMK A01 T00081080  RH  052%=      5-min Rain = 0
KBR1 100106Z 05007KT 01/M08 A3035 RMK A01 T00081080  RH  052%=      5-min Rain = 0
KBR1 100107Z 05007KT 01/M08 A3035 RMK A01 T00071080  RH  052%=      5-min Rain = 0
KBR1 100108Z 06007KT 01/M08 A3035 RMK A01 T00061080  RH  052%=      5-min Rain = 0
KBR1 100109Z 06007KT 01/M08 A3035 RMK A01 T00061080  RH  052%=      5-min Rain = 0
KBR1 100110Z 06007KT 01/M08 A3035 RMK A01 T00051080  RH  053%=      5-min Rain = 0
KBR1 100111Z 06007KT 01/M08 A3035 RMK A01 T00051080  RH  053%=      5-min Rain = 0
KBR1 100112Z 06007KT 01/M08 A3035 RMK A01 T00051080  RH  053%=      5-min Rain = 0
KBR1 100113Z 06007KT 01/M08 A3035 RMK A01 T00051080  RH  053%=      5-min Rain = 0
KBR1 100114Z 06007KT 01/M08 A3035 RMK A01 T00051079  RH  053%=      5-min Rain = 0
KBR1 100115Z 06006KT 01/M08 A3035 RMK A01 T00061078  RH  053%=      5-min Rain = 0
KBR1 100116Z 06006KT 01/M08 A3035 RMK A01 T00071078  RH  053%=      5-min Rain = 0
KBR1 100117Z 06006KT 01/M08 A3035 RMK A01 T00101077  RH  052%=      5-min Rain = 0
KBR1 100118Z 06007KT 01/M08 A3035 RMK A01 T00121076  RH  052%=      5-min Rain = 0
KBR1 100119Z 06007KT 01/M08 A3035 RMK A01 T00141076  RH  051%=      5-min Rain = 0
KBR1 100120Z 06007KT 02/M08 A3035 RMK A01 T00151076  RH  051%=      5-min Rain = 0
KBR1 100121Z 06007KT 02/M08 A3035 RMK A01 T00151077  RH  050%=      5-min Rain = 0
KBR1 100122Z 05007KT 01/M08 A3036 RMK A01 T00141077  RH  051%=      5-min Rain = 0
KBR1 100123Z 05007KT 01/M08 A3036 RMK A01 T00121078  RH  051%=      5-min Rain = 0
KBR1 100124Z 05008KT 01/M08 A3036 RMK A01 T00101079  RH  052%=      5-min Rain = 0
KBR1 100125Z 05008KT 01/M08 A3036 RMK A01 T00071080  RH  052%=      5-min Rain = 0
KBR1 100126Z 05008KT 00/M08 A3036 RMK A01 T00041080  RH  053%=      5-min Rain = 0
KBR1 100127Z 05008KT 00/M08 A3036 RMK A01 T00021080  RH  054%=      5-min Rain = 0
KBR1 100128Z 04009KT 00/08 A3036 RMK A01 T00000-79  RH  055%=      5-min Rain = 0
KBR1 100129Z 04009KT 00/08 A3036 RMK A01 T00-00-78  RH  056%=      5-min Rain = 0
KBR1 100130Z 04008KT 00/08 A3036 RMK A01 T00-00-77  RH  056%=      5-min Rain = 0
KBR1 100131Z 04008KT 00/M08 A3036 RMK A01 T00011076  RH  056%=      5-min Rain = 0
KBR1 100132Z 04008KT 00/M08 A3036 RMK A01 T00021076  RH  056%=      5-min Rain = 0
KBR1 100133Z 04007KT 00/M08 A3036 RMK A01 T00041075  RH  055%=      5-min Rain = 0
KBR1 100134Z 05007KT 01/M08 A3036 RMK A01 T00051075  RH  055%=      5-min Rain = 0
KBR1 100135Z 05007KT 01/M07 A3036 RMK A01 T00071074  RH  054%=      5-min Rain = 0
KBR1 100136Z 04007KT 01/M07 A3036 RMK A01 T00101074  RH  054%=      5-min Rain = 0
KBR1 100137Z 04007KT 01/M07 A3036 RMK A01 T00121074  RH  053%=      5-min Rain = 0
KBR1 100138Z 04008KT 01/M07 A3036 RMK A01 T00121074  RH  053%=      5-min Rain = 0
KBR1 100139Z 04008KT 01/M08 A3036 RMK A01 T00121075  RH  052%=      5-min Rain = 0
KBR1 100140Z 04008KT 01/M08 A3036 RMK A01 T00101077  RH  053%=      5-min Rain = 0
KBR1 100141Z 04009KT 01/M08 A3036 RMK A01 T00081077  RH  053%=      5-min Rain = 0
KBR1 100142Z 04009KT 01/M08 A3036 RMK A01 T00061077  RH  054%=      5-min Rain = 0
KBR1 100143Z 04010KT 00/M08 A3036 RMK A01 T00041077  RH  055%=      5-min Rain = 0
KBR1 100144Z 03009KT 00/M08 A3036 RMK A01 T00021078  RH  055%=      5-min Rain = 0
KBR1 100145Z 03008KT 00/08 A3036 RMK A01 T00-00-78  RH  056%=      5-min Rain = 0
KBR1 100146Z 03007KT 00/08 A3036 RMK A01 T00-00-76  RH  056%=      5-min Rain = 0
KBR1 100147Z 03007KT 00/M08 A3036 RMK A01 T00011075  RH  057%=      5-min Rain = 0
KBR1 100148Z 03007KT 00/M07 A3036 RMK A01 T00021074  RH  057%=      5-min Rain = 0
KBR1 100149Z 03007KT 00/M07 A3036 RMK A01 T00031073  RH  056%=      5-min Rain = 0
KBR1 100150Z 03007KT 00/M07 A3036 RMK A01 T00041073  RH  056%=      5-min Rain = 0
KBR1 100151Z 04007KT 00/M07 A3036 RMK A01 T00041073  RH  056%=      5-min Rain = 0
KBR1 100152Z 04008KT 00/M07 A3036 RMK A01 T00031074  RH  056%=      5-min Rain = 0
KBR1 100153Z 04008KT 00/M08 A3036 RMK A01 T00021075  RH  056%=      5-min Rain = 0
KBR1 100154Z 04008KT 00/M08 A3036 RMK A01 T00021075  RH  056%=      5-min Rain = 0
KBR1 100155Z 04008KT 00/M08 A3036 RMK A01 T00021075  RH  056%=      5-min Rain = 0
KBR1 100156Z 04008KT 00/M08 A3036 RMK A01 T00011076  RH  056%=      5-min Rain = 0
KBR1 100157Z 04009KT 00/08 A3036 RMK A01 T00-00-77  RH  056%=      5-min Rain = 0
KBR1 100158Z 04009KT M00/M08 A3036 RMK A01 T10011077  RH  057%=      5-min Rain = 0
KBR1 100159Z 04009KT M00/M08 A3036 RMK A01 T10021077  RH  057%=      5-min Rain = 0
KBR1 100200Z 04009KT M00/M08 A3036 RMK A01 T10031077  RH  057%=      5-min Rain = 0
KBR1 100201Z 04009KT M00/M08 A3036 RMK A01 T10031077  RH  058%=      5-min Rain = 0
KBR1 100202Z 04009KT M00/M08 A3036 RMK A01 T10041077  RH  058%=      5-min Rain = 0
KBR1 100203Z 04009KT M00/M08 A3036 RMK A01 T10041077  RH  058%=      5-min Rain = 0
KBR1 100204Z 05009KT M00/M08 A3036 RMK A01 T10041077  RH  058%=      5-min Rain = 0
KBR1 100205Z 05009KT M00/M08 A3036 RMK A01 T10031077  RH  058%=      5-min Rain = 0
KBR1 100206Z 05009KT M00/M08 A3036 RMK A01 T10031077  RH  058%=      5-min Rain = 0
KBR1 100207Z 05009KT M00/M08 A3036 RMK A01 T10031077  RH  057%=      5-min Rain = 0
KBR1 100208Z 04009KT M00/M08 A3036 RMK A01 T10021077  RH  057%=      5-min Rain = 0
KBR1 100209Z 04008KT M00/M08 A3036 RMK A01 T10021077  RH  057%=      5-min Rain = 0
KBR1 100210Z 04008KT M00/M08 A3036 RMK A01 T10021077  RH  057%=      5-min Rain = 0
KBR1 100211Z 05008KT M00/M08 A3036 RMK A01 T10011077  RH  057%=      5-min Rain = 0
KBR1 100212Z 05007KT M00/M08 A3036 RMK A01 T10011077  RH  057%=      5-min Rain = 0
KBR1 100213Z 05007KT M00/M08 A3036 RMK A01 T10011077  RH  056%=      5-min Rain = 0
KBR1 100214Z 06007KT 00/08 A3036 RMK A01 T00000-77  RH  056%=      5-min Rain = 0
KBR1 100215Z 06007KT 00/M08 A3036 RMK A01 T00021077  RH  056%=      5-min Rain = 0
KBR1 100216Z 06008KT 00/M08 A3036 RMK A01 T00031076  RH  055%=      5-min Rain = 0
KBR1 100217Z 06008KT 00/M08 A3036 RMK A01 T00041077  RH  055%=      5-min Rain = 0
KBR1 100218Z 06008KT 00/M08 A3036 RMK A01 T00041078  RH  054%=      5-min Rain = 0
KBR1 100219Z 06008KT 00/M08 A3036 RMK A01 T00041078  RH  054%=      5-min Rain = 0
KBR1 100220Z 06007KT 00/M08 A3036 RMK A01 T00031079  RH  054%=      5-min Rain = 0
KBR1 100221Z 05007KT 00/M08 A3036 RMK A01 T00021079  RH  055%=      5-min Rain = 0
KBR1 100222Z 05007KT 00/M08 A3036 RMK A01 T00011079  RH  055%=      5-min Rain = 0
KBR1 100223Z 05007KT 00/08 A3036 RMK A01 T00000-79  RH  055%=      5-min Rain = 0
KBR1 100224Z 05007KT M00/M08 A3036 RMK A01 T10011079  RH  055%=      5-min Rain = 0
KBR1 100225Z 05007KT M00/M08 A3036 RMK A01 T10011079  RH  056%=      5-min Rain = 0
KBR1 100226Z 05008KT M00/M08 A3036 RMK A01 T10021079  RH  056%=      5-min Rain = 0
KBR1 100227Z 06008KT M00/M08 A3036 RMK A01 T10031079  RH  056%=      5-min Rain = 0
KBR1 100228Z 06008KT M00/M08 A3036 RMK A01 T10021078  RH  056%=      5-min Rain = 0
KBR1 100229Z 06008KT M00/M08 A3036 RMK A01 T10021078  RH  056%=      5-min Rain = 0
KBR1 100230Z 06008KT M00/M08 A3036 RMK A01 T10011077  RH  056%=      5-min Rain = 0
KBR1 100231Z 06008KT 00/08 A3036 RMK A01 T00000-77  RH  056%=      5-min Rain = 0
KBR1 100232Z 05008KT 00/08 A3036 RMK A01 T00000-77  RH  056%=      5-min Rain = 0
KBR1 100233Z 05007KT 00/M08 A3036 RMK A01 T00011078  RH  056%=      5-min Rain = 0
KBR1 100234Z 05007KT 00/08 A3036 RMK A01 T00000-77  RH  056%=      5-min Rain = 0
KBR1 100235Z 05008KT 00/08 A3036 RMK A01 T00-00-77  RH  056%=      5-min Rain = 0
KBR1 100236Z 06008KT 00/08 A3036 RMK A01 T00-00-77  RH  056%=      5-min Rain = 0
KBR1 100237Z 06008KT M00/M08 A3036 RMK A01 T10011078  RH  056%=      5-min Rain = 0
KBR1 100238Z 07008KT M00/M08 A3036 RMK A01 T10011078  RH  056%=      5-min Rain = 0
KBR1 100239Z 07008KT 00/08 A3036 RMK A01 T00000-78  RH  056%=      5-min Rain = 0
KBR1 100240Z 07008KT 00/M08 A3036 RMK A01 T00011078  RH  056%=      5-min Rain = 0
KBR1 100241Z 08008KT 00/M08 A3036 RMK A01 T00011078  RH  055%=      5-min Rain = 0
KBR1 100242Z 08008KT 00/M08 A3036 RMK A01 T00011078  RH  055%=      5-min Rain = 0
KBR1 100243Z 07008KT 00/M08 A3036 RMK A01 T00021078  RH  055%=      5-min Rain = 0
KBR1 100244Z 07008KT 00/M08 A3036 RMK A01 T00031078  RH  055%=      5-min Rain = 0
KBR1 100245Z 06008KT 00/M08 A3036 RMK A01 T00031078  RH  055%=      5-min Rain = 0
KBR1 100246Z 06008KT 00/08 A3036 RMK A01 T00000-80  RH  055%=      5-min Rain = 0
KBR1 100247Z 06008KT M00/M08 A3036 RMK A01 T10021080  RH  056%=      5-min Rain = 0
KBR1 100248Z 06008KT M00/M08 A3036 RMK A01 T10041080  RH  057%=      5-min Rain = 0
KBR1 100249Z 06008KT M01/M08 A3036 RMK A01 T10051079  RH  057%=      5-min Rain = 0
KBR1 100250Z 06008KT M01/M08 A3036 RMK A01 T10051079  RH  057%=      5-min Rain = 0
KBR1 100251Z 06008KT M00/M08 A3036 RMK A01 T10031078  RH  057%=      5-min Rain = 0
KBR1 100252Z 06007KT M00/M08 A3036 RMK A01 T10021077  RH  057%=      5-min Rain = 0
KBR1 100253Z 06007KT M00/M08 A3036 RMK A01 T10021077  RH  057%=      5-min Rain = 0
KBR1 100254Z 06007KT M00/M08 A3036 RMK A01 T10011077  RH  057%=      5-min Rain = 0
KBR1 100255Z 05007KT M00/M08 A3036 RMK A01 T10011078  RH  056%=      5-min Rain = 0
KBR1 100256Z 06007KT M00/M08 A3036 RMK A01 T10011078  RH  056%=      5-min Rain = 0
KBR1 100257Z 06007KT M00/M08 A3036 RMK A01 T10011077  RH  056%=      5-min Rain = 0
KBR1 100258Z 07008KT M00/M08 A3036 RMK A01 T10011078  RH  056%=      5-min Rain = 0
KBR1 100259Z 07007KT M00/M08 A3036 RMK A01 T10011078  RH  056%=      5-min Rain = 0
KBR1 100300Z 07007KT M00/M08 A3036 RMK A01 T10011078  RH  056%=      5-min Rain = 0
KBR1 100301Z 07007KT M00/M08 A3036 RMK A01 T10011078  RH  056%=      5-min Rain = 0
KBR1 100302Z 07007KT M00/M08 A3036 RMK A01 T10011078  RH  056%=      5-min Rain = 0
KBR1 100303Z 07006KT M00/M08 A3037 RMK A01 T10011078  RH  056%=      5-min Rain = 0
KBR1 100304Z 07006KT M00/M08 A3037 RMK A01 T10011079  RH  056%=      5-min Rain = 0
KBR1 100305Z 07006KT M00/M08 A3037 RMK A01 T10011078  RH  056%=      5-min Rain = 0
KBR1 100306Z 06006KT M00/M08 A3037 RMK A01 T10011079  RH  056%=      5-min Rain = 0
KBR1 100307Z 05005KT M00/M08 A3037 RMK A01 T10011079  RH  056%=      5-min Rain = 0
KBR1 100308Z 05005KT M00/M08 A3037 RMK A01 T10021079  RH  056%=      5-min Rain = 0
KBR1 100309Z 05005KT M00/M08 A3037 RMK A01 T10031080  RH  056%=      5-min Rain = 0
KBR1 100310Z 05005KT M00/M08 A3037 RMK A01 T10041080  RH  056%=      5-min Rain = 0
KBR1 100311Z 05005KT M01/M08 A3037 RMK A01 T10051081  RH  057%=      5-min Rain = 0
KBR1 100312Z 05004KT M01/M08 A3037 RMK A01 T10061081  RH  057%=      5-min Rain = 0
KBR1 100313Z 04004KT M01/M08 A3037 RMK A01 T10081081  RH  057%=      5-min Rain = 0
KBR1 100314Z 04004KT M01/M08 A3037 RMK A01 T10081080  RH  058%=      5-min Rain = 0
KBR1 100315Z 03004KT M01/M08 A3037 RMK A01 T10081080  RH  058%=      5-min Rain = 0
KBR1 100316Z 01002KT M01/M08 A3037 RMK A01 T10101080  RH  059%=      5-min Rain = 0
KBR1 100317Z 36003KT M01/M08 A3037 RMK A01 T10131083  RH  059%=      5-min Rain = 0
KBR1 100318Z 00003KT M02/M08 A3037 RMK A01 T10181084  RH  061%=      5-min Rain = 0
KBR1 100319Z 02003KT M02/M08 A3037 RMK A01 T10201083  RH  062%=      5-min Rain = 0
KBR1 100320Z 03004KT M02/M08 A3037 RMK A01 T10221083  RH  063%=      5-min Rain = 0
KBR1 100321Z 03004KT M02/M08 A3037 RMK A01 T10221082  RH  063%=      5-min Rain = 0
KBR1 100322Z 04004KT M02/M08 A3037 RMK A01 T10211082  RH  063%=      5-min Rain = 0
KBR1 100323Z 04004KT M02/M08 A3037 RMK A01 T10201082  RH  063%=      5-min Rain = 0
KBR1 100324Z 04005KT M02/M08 A3037 RMK A01 T10201083  RH  062%=      5-min Rain = 0
KBR1 100325Z 05005KT M02/M08 A3037 RMK A01 T10201083  RH  062%=      5-min Rain = 0
KBR1 100326Z 04005KT M02/M08 A3037 RMK A01 T10201083  RH  062%=      5-min Rain = 0
KBR1 100327Z 04005KT M02/M08 A3037 RMK A01 T10211082  RH  063%=      5-min Rain = 0
KBR1 100328Z 04005KT M02/M08 A3037 RMK A01 T10191081  RH  063%=      5-min Rain = 0
KBR1 100329Z 04005KT M02/M08 A3037 RMK A01 T10161080  RH  062%=      5-min Rain = 0
KBR1 100330Z 05004KT M02/M08 A3037 RMK A01 T10161081  RH  061%=      5-min Rain = 0
KBR1 100331Z 05004KT M02/M08 A3037 RMK A01 T10191084  RH  061%=      5-min Rain = 0
KBR1 100332Z 05004KT M02/M08 A3037 RMK A01 T10211084  RH  062%=      5-min Rain = 0
KBR1 100333Z 05005KT M02/M08 A3037 RMK A01 T10221083  RH  063%=      5-min Rain = 0
KBR1 100334Z 05005KT M02/M08 A3037 RMK A01 T10211082  RH  063%=      5-min Rain = 0
KBR1 100335Z 05005KT M02/M08 A3037 RMK A01 T10201082  RH  063%=      5-min Rain = 0
KBR1 100336Z 05005KT M02/M08 A3037 RMK A01 T10191081  RH  063%=      5-min Rain = 0
KBR1 100337Z 05005KT M02/M08 A3037 RMK A01 T10191082  RH  062%=      5-min Rain = 0
KBR1 100338Z 05006KT M02/M08 A3037 RMK A01 T10191081  RH  062%=      5-min Rain = 0
KBR1 100339Z 05006KT M02/M08 A3037 RMK A01 T10181081  RH  062%=      5-min Rain = 0
KBR1 100340Z 05006KT M02/M08 A3037 RMK A01 T10181081  RH  062%=      5-min Rain = 0
KBR1 100341Z 05006KT M02/M08 A3037 RMK A01 T10171081  RH  062%=      5-min Rain = 0
KBR1 100342Z 04005KT M02/M08 A3037 RMK A01 T10171081  RH  062%=      5-min Rain = 0
KBR1 100343Z 04005KT M02/M08 A3037 RMK A01 T10161080  RH  062%=      5-min Rain = 0
KBR1 100344Z 04004KT M02/M08 A3037 RMK A01 T10161081  RH  061%=      5-min Rain = 0
KBR1 100345Z 04004KT M02/M08 A3037 RMK A01 T10171081  RH  061%=      5-min Rain = 0
KBR1 100346Z 03004KT M02/M08 A3037 RMK A01 T10181081  RH  062%=      5-min Rain = 0
KBR1 100347Z 02003KT M02/M08 A3037 RMK A01 T10201083  RH  062%=      5-min Rain = 0
KBR1 100348Z 03003KT M02/M08 A3037 RMK A01 T10221083  RH  063%=      5-min Rain = 0
KBR1 100349Z 04003KT M02/M08 A3037 RMK A01 T10231083  RH  064%=      5-min Rain = 0
KBR1 100350Z 04003KT M02/M08 A3037 RMK A01 T10241082  RH  064%=      5-min Rain = 0
KBR1 100351Z 04004KT M02/M08 A3037 RMK A01 T10231081  RH  065%=      5-min Rain = 0
KBR1 100352Z 03003KT M02/M08 A3037 RMK A01 T10221080  RH  064%=      5-min Rain = 0
KBR1 100353Z 03003KT M02/M08 A3037 RMK A01 T10211080  RH  064%=      5-min Rain = 0
KBR1 100354Z 03003KT M02/M08 A3037 RMK A01 T10211081  RH  064%=      5-min Rain = 0
KBR1 100355Z 03003KT M02/M08 A3037 RMK A01 T10221081  RH  064%=      5-min Rain = 0
KBR1 100356Z 03002KT M02/M08 A3037 RMK A01 T10241081  RH  065%=      5-min Rain = 0
KBR1 100357Z 03002KT M02/M08 A3037 RMK A01 T10241081  RH  065%=      5-min Rain = 0
KBR1 100358Z 03002KT M02/M08 A3037 RMK A01 T10241081  RH  065%=      5-min Rain = 0
KBR1 100359Z 02002KT M02/M08 A3037 RMK A01 T10241081  RH  065%=      5-min Rain = 0
KBR1 100400Z 03002KT M02/M08 A3037 RMK A01 T10231081  RH  064%=      5-min Rain = 0
KBR1 100401Z 03002KT M02/M08 A3037 RMK A01 T10211081  RH  064%=      5-min Rain = 0
KBR1 100402Z 03002KT M02/M08 A3037 RMK A01 T10211082  RH  063%=      5-min Rain = 0
KBR1 100403Z 02002KT M02/M08 A3037 RMK A01 T10211082  RH  063%=      5-min Rain = 0
KBR1 100404Z 03002KT M02/M08 A3037 RMK A01 T10211082  RH  063%=      5-min Rain = 0
KBR1 100405Z 03002KT M02/M08 A3037 RMK A01 T10211082  RH  063%=      5-min Rain = 0
KBR1 100406Z 03002KT M02/M08 A3037 RMK A01 T10211082  RH  063%=      5-min Rain = 0
KBR1 100407Z 03001KT M02/M08 A3037 RMK A01 T10201082  RH  062%=      5-min Rain = 0
KBR1 100408Z 00001KT M02/M08 A3037 RMK A01 T10181081  RH  062%=      5-min Rain = 0
KBR1 100409Z 36002KT M02/M08 A3038 RMK A01 T10181082  RH  062%=      5-min Rain = 0
KBR1 100410Z 36002KT M02/M08 A3038 RMK A01 T10211084  RH  062%=      5-min Rain = 0
KBR1 100411Z 34002KT M02/M08 A3038 RMK A01 T10231084  RH  063%=      5-min Rain = 0
KBR1 100412Z 34002KT M03/M09 A3038 RMK A01 T10261085  RH  063%=      5-min Rain = 0
KBR1 100413Z 34003KT M03/M09 A3038 RMK A01 T10281085  RH  065%=      5-min Rain = 0
KBR1 100414Z 34003KT M03/M09 A3038 RMK A01 T10281085  RH  065%=      5-min Rain = 0
KBR1 100415Z 33003KT M03/M08 A3038 RMK A01 T10271084  RH  065%=      5-min Rain = 0
KBR1 100416Z 33003KT M03/M08 A3038 RMK A01 T10251083  RH  065%=      5-min Rain = 0
KBR1 100417Z 34003KT M02/M08 A3038 RMK A01 T10231082  RH  064%=      5-min Rain = 0
KBR1 100418Z 35003KT M02/M08 A3038 RMK A01 T10231082  RH  064%=      5-min Rain = 0
KBR1 100419Z 35003KT M02/M08 A3038 RMK A01 T10231082  RH  064%=      5-min Rain = 0
KBR1 100420Z 34003KT M02/M08 A3038 RMK A01 T10231082  RH  064%=      5-min Rain = 0
KBR1 100421Z 32004KT M02/M08 A3038 RMK A01 T10241083  RH  064%=      5-min Rain = 0
KBR1 100422Z 33004KT M03/M08 A3038 RMK A01 T10251084  RH  064%=      5-min Rain = 0
KBR1 100423Z 33004KT M03/M09 A3038 RMK A01 T10261085  RH  064%=      5-min Rain = 0
KBR1 100424Z 33004KT M03/M09 A3038 RMK A01 T10281085  RH  065%=      5-min Rain = 0
KBR1 100425Z 33004KT M03/M09 A3038 RMK A01 T10291085  RH  065%=      5-min Rain = 0
KBR1 100426Z 32004KT M03/M09 A3038 RMK A01 T10301085  RH  066%=      5-min Rain = 0
KBR1 100427Z 33004KT M03/M09 A3038 RMK A01 T10301085  RH  066%=      5-min Rain = 0
KBR1 100428Z 33004KT M03/M08 A3038 RMK A01 T10301084  RH  066%=      5-min Rain = 0
KBR1 100429Z 34004KT M03/M08 A3038 RMK A01 T10301084  RH  066%=      5-min Rain = 0
KBR1 100430Z 34004KT M03/M08 A3037 RMK A01 T10301084  RH  066%=      5-min Rain = 0
KBR1 100431Z 34004KT M03/M08 A3037 RMK A01 T10301084  RH  066%=      5-min Rain = 0
KBR1 100432Z 35004KT M03/M08 A3037 RMK A01 T10301084  RH  067%=      5-min Rain = 0
KBR1 100433Z 35004KT M03/M08 A3037 RMK A01 T10291084  RH  066%=      5-min Rain = 0
KBR1 100434Z 35004KT M03/M08 A3037 RMK A01 T10291084  RH  066%=      5-min Rain = 0
KBR1 100435Z 35004KT M03/M08 A3037 RMK A01 T10281083  RH  066%=      5-min Rain = 0
KBR1 100436Z 35003KT M03/M08 A3037 RMK A01 T10261083  RH  065%=      5-min Rain = 0
KBR1 100437Z 34003KT M03/M08 A3037 RMK A01 T10251083  RH  065%=      5-min Rain = 0
KBR1 100438Z 34003KT M02/M08 A3037 RMK A01 T10241082  RH  064%=      5-min Rain = 0
KBR1 100439Z 34003KT M02/M08 A3037 RMK A01 T10231083  RH  064%=      5-min Rain = 0
KBR1 100440Z 34003KT M03/M08 A3037 RMK A01 T10251084  RH  064%=      5-min Rain = 0
KBR1 100441Z 33003KT M03/M08 A3037 RMK A01 T10261084  RH  064%=      5-min Rain = 0
KBR1 100442Z 33003KT M03/M08 A3037 RMK A01 T10261083  RH  065%=      5-min Rain = 0
KBR1 100443Z 32003KT M03/M08 A3037 RMK A01 T10251083  RH  064%=      5-min Rain = 0
KBR1 100444Z 31003KT M03/M08 A3037 RMK A01 T10251083  RH  064%=      5-min Rain = 0
KBR1 100445Z 31003KT M03/M08 A3037 RMK A01 T10251083  RH  064%=      5-min Rain = 0
KBR1 100446Z 31002KT M03/M08 A3037 RMK A01 T10251083  RH  064%=      5-min Rain = 0
KBR1 100447Z 31002KT M02/M08 A3037 RMK A01 T10241083  RH  064%=      5-min Rain = 0
KBR1 100448Z 31002KT M03/M08 A3037 RMK A01 T10251084  RH  064%=      5-min Rain = 0
KBR1 100449Z 31002KT M03/M08 A3037 RMK A01 T10261084  RH  064%=      5-min Rain = 0
KBR1 100450Z 32002KT M03/M08 A3037 RMK A01 T10261084  RH  065%=      5-min Rain = 0
KBR1 100451Z 33002KT M03/M08 A3037 RMK A01 T10271084  RH  065%=      5-min Rain = 0
KBR1 100452Z 32003KT M03/M08 A3037 RMK A01 T10271084  RH  065%=      5-min Rain = 0
KBR1 100453Z 32002KT M03/M08 A3037 RMK A01 T10271084  RH  065%=      5-min Rain = 0
KBR1 100454Z 32002KT M03/M08 A3037 RMK A01 T10271084  RH  065%=      5-min Rain = 0
KBR1 100455Z 32002KT M03/M08 A3037 RMK A01 T10281084  RH  065%=      5-min Rain = 0
KBR1 100456Z 32002KT M03/M08 A3037 RMK A01 T10291084  RH  066%=      5-min Rain = 0
KBR1 100457Z 34002KT M03/M08 A3037 RMK A01 T10291084  RH  066%=      5-min Rain = 0
KBR1 100458Z 35002KT M03/M09 A3037 RMK A01 T10311085  RH  066%=      5-min Rain = 0
KBR1 100459Z 35003KT M03/M09 A3037 RMK A01 T10331087  RH  067%=      5-min Rain = 0
KBR1 100500Z 34003KT M04/M09 A3037 RMK A01 T10361088  RH  067%=      5-min Rain = 0
KBR1 100501Z 34003KT M04/M09 A3037 RMK A01 T10401089  RH  069%=      5-min Rain = 0
KBR1 100502Z 33003KT M04/M09 A3037 RMK A01 T10411088  RH  070%=      5-min Rain = 0
KBR1 100503Z 33003KT M04/M09 A3037 RMK A01 T10421087  RH  071%=      5-min Rain = 0
KBR1 100504Z 33003KT M04/M09 A3037 RMK A01 T10431087  RH  071%=      5-min Rain = 0
KBR1 100505Z 33004KT M04/M09 A3037 RMK A01 T10411085  RH  072%=      5-min Rain = 0
KBR1 100506Z 33004KT M04/M08 A3037 RMK A01 T10381083  RH  071%=      5-min Rain = 0
KBR1 100507Z 33004KT M03/M08 A3037 RMK A01 T10341082  RH  069%=      5-min Rain = 0
KBR1 100508Z 33004KT M03/M08 A3037 RMK A01 T10311082  RH  068%=      5-min Rain = 0
KBR1 100509Z 33004KT M03/M08 A3037 RMK A01 T10291082  RH  067%=      5-min Rain = 0
KBR1 100510Z 32004KT M03/M08 A3037 RMK A01 T10281082  RH  066%=      5-min Rain = 0
KBR1 100511Z 32004KT M03/M08 A3037 RMK A01 T10271083  RH  065%=      5-min Rain = 0
KBR1 100512Z 31004KT M03/M08 A3037 RMK A01 T10261083  RH  065%=      5-min Rain = 0
KBR1 100513Z 31004KT M03/M08 A3037 RMK A01 T10261083  RH  065%=      5-min Rain = 0
KBR1 100514Z 31004KT M03/M08 A3037 RMK A01 T10271084  RH  065%=      5-min Rain = 0
KBR1 100515Z 31004KT M03/M08 A3037 RMK A01 T10271084  RH  065%=      5-min Rain = 0
KBR1 100516Z 31005KT M03/M08 A3037 RMK A01 T10281084  RH  065%=      5-min Rain = 0
KBR1 100517Z 31005KT M03/M08 A3037 RMK A01 T10281084  RH  066%=      5-min Rain = 0
KBR1 100518Z 31005KT M03/M08 A3037 RMK A01 T10281084  RH  065%=      5-min Rain = 0
KBR1 100519Z 31004KT M03/M08 A3037 RMK A01 T10281084  RH  065%=      5-min Rain = 0
KBR1 100520Z 31004KT M03/M08 A3037 RMK A01 T10281083  RH  065%=      5-min Rain = 0
KBR1 100521Z 31004KT M03/M08 A3037 RMK A01 T10281084  RH  065%=      5-min Rain = 0
KBR1 100522Z 31004KT M03/M08 A3037 RMK A01 T10281083  RH  065%=      5-min Rain = 0
KBR1 100523Z 31004KT M03/M08 A3037 RMK A01 T10281083  RH  066%=      5-min Rain = 0
KBR1 100524Z 31004KT M03/M08 A3037 RMK A01 T10281084  RH  066%=      5-min Rain = 0
KBR1 100525Z 31003KT M03/M08 A3037 RMK A01 T10291084  RH  066%=      5-min Rain = 0
KBR1 100526Z 30003KT M03/M08 A3037 RMK A01 T10291083  RH  066%=      5-min Rain = 0
KBR1 100527Z 31003KT M03/M08 A3037 RMK A01 T10291083  RH  066%=      5-min Rain = 0
KBR1 100528Z 30002KT M03/M08 A3037 RMK A01 T10281083  RH  066%=      5-min Rain = 0
KBR1 100529Z 31002KT M03/M08 A3037 RMK A01 T10281083  RH  066%=      5-min Rain = 0
KBR1 100530Z 31002KT M03/M08 A3037 RMK A01 T10281083  RH  066%=      5-min Rain = 0
KBR1 100531Z 32003KT M03/M08 A3037 RMK A01 T10291083  RH  066%=      5-min Rain = 0
KBR1 100532Z 32002KT M03/M08 A3037 RMK A01 T10281083  RH  066%=      5-min Rain = 0
KBR1 100533Z 32003KT M03/M08 A3037 RMK A01 T10271083  RH  066%=      5-min Rain = 0
KBR1 100534Z 33003KT M03/M08 A3037 RMK A01 T10271083  RH  065%=      5-min Rain = 0
KBR1 100535Z 33003KT M03/M08 A3037 RMK A01 T10271084  RH  065%=      5-min Rain = 0
KBR1 100536Z 33003KT M03/M09 A3037 RMK A01 T10301085  RH  065%=      5-min Rain = 0
KBR1 100537Z 33003KT M03/M09 A3037 RMK A01 T10321086  RH  066%=      5-min Rain = 0
KBR1 100538Z 33003KT M03/M09 A3037 RMK A01 T10321085  RH  067%=      5-min Rain = 0
KBR1 100539Z 33004KT M03/M09 A3037 RMK A01 T10331085  RH  067%=      5-min Rain = 0
KBR1 100540Z 33004KT M03/M08 A3037 RMK A01 T10331084  RH  068%=      5-min Rain = 0
KBR1 100541Z 33004KT M03/M09 A3037 RMK A01 T10341085  RH  068%=      5-min Rain = 0
KBR1 100542Z 32004KT M03/M09 A3037 RMK A01 T10341085  RH  068%=      5-min Rain = 0
KBR1 100543Z 32004KT M03/M09 A3037 RMK A01 T10341085  RH  068%=      5-min Rain = 0
KBR1 100544Z 32004KT M03/M08 A3037 RMK A01 T10341084  RH  068%=      5-min Rain = 0
KBR1 100545Z 33003KT M03/M08 A3037 RMK A01 T10341084  RH  068%=      5-min Rain = 0
KBR1 100546Z 33003KT M03/M09 A3037 RMK A01 T10341085  RH  068%=      5-min Rain = 0
KBR1 100547Z 33003KT M03/M08 A3037 RMK A01 T10331084  RH  068%=      5-min Rain = 0
KBR1 100548Z 32003KT M03/M08 A3037 RMK A01 T10321083  RH  068%=      5-min Rain = 0
KBR1 100549Z 32004KT M03/M08 A3037 RMK A01 T10321083  RH  068%=      5-min Rain = 0
KBR1 100550Z 32004KT M03/M08 A3037 RMK A01 T10311083  RH  067%=      5-min Rain = 0
KBR1 100551Z 32004KT M03/M08 A3037 RMK A01 T10301083  RH  067%=      5-min Rain = 0
KBR1 100552Z 32003KT M03/M08 A3037 RMK A01 T10291083  RH  066%=      5-min Rain = 0
KBR1 100553Z 32003KT M03/M08 A3037 RMK A01 T10281083  RH  066%=      5-min Rain = 0
KBR1 100554Z 31003KT M03/M08 A3037 RMK A01 T10291083  RH  066%=      5-min Rain = 0
KBR1 100555Z 31004KT M03/M08 A3037 RMK A01 T10291083  RH  066%=      5-min Rain = 0
KBR1 100556Z 32004KT M03/M08 A3037 RMK A01 T10271082  RH  066%=      5-min Rain = 0
KBR1 100557Z 31003KT M03/M08 A3037 RMK A01 T10261082  RH  065%=      5-min Rain = 0
KBR1 100558Z 31003KT M03/M08 A3037 RMK A01 T10251082  RH  065%=      5-min Rain = 0
KBR1 100559Z 31003KT M02/M08 A3037 RMK A01 T10241082  RH  065%=      5-min Rain = 0

Page generated in 0.1525 seconds.